| time (UTC) | temp C | wind direction | speed KPH | gust KPH | rain 1hr cm | rain 24hr cm | rain mn cm | humidity % | barometer mb |
| 20260504184654 | 22 | 203 | 19.3 | 38.6 | 0.00 | 0.05 | 0.00 | 45 | 1006.1 |
| 20260504184554 | 22 | 200 | 25.7 | 38.6 | 0.00 | 0.05 | 0.00 | 45 | 1006.1 |
| 20260504184454 | 22 | 205 | 22.5 | 37.0 | 0.00 | 0.05 | 0.00 | 45 | 1006.1 |
| 20260504184354 | 22 | 170 | 17.7 | 37.0 | 0.00 | 0.05 | 0.00 | 45 | 1006.1 |
| 20260504184256 | 22 | 177 | 16.1 | 37.0 | 0.00 | 0.05 | 0.00 | 45 | 1006.1 |
| 20260504184156 | 22 | 200 | 17.7 | 37.0 | 0.00 | 0.05 | 0.00 | 44 | 1006.1 |
| 20260504184056 | 22 | 222 | 16.1 | 33.8 | 0.00 | 0.05 | 0.00 | 44 | 1006.1 |
| 20260504183956 | 23 | 219 | 16.1 | 33.8 | 0.00 | 0.05 | 0.00 | 43 | 1006.1 |
| 20260504183856 | 23 | 222 | 16.1 | 33.8 | 0.00 | 0.05 | 0.00 | 43 | 1006.1 |
| 20260504183756 | 23 | 187 | 16.1 | 33.8 | 0.00 | 0.05 | 0.00 | 43 | 1006.1 |
| 20260504183656 | 23 | 193 | 11.3 | 33.8 | 0.00 | 0.05 | 0.00 | 43 | 1006.1 |
| 20260504183556 | 23 | 246 | 11.3 | 35.4 | 0.00 | 0.05 | 0.00 | 43 | 1006.1 |
| 20260504183456 | 23 | 184 | 16.1 | 35.4 | 0.00 | 0.05 | 0.00 | 43 | 1006.1 |
| 20260504183356 | 22 | 184 | 14.5 | 35.4 | 0.00 | 0.05 | 0.00 | 43 | 1006.1 |
| 20260504183256 | 22 | 188 | 17.7 | 35.4 | 0.00 | 0.05 | 0.00 | 44 | 1006.1 |
| 20260504183156 | 23 | 173 | 11.3 | 35.4 | 0.00 | 0.05 | 0.00 | 44 | 1006.1 |
| 20260504183056 | 22 | 197 | 11.3 | 51.5 | 0.00 | 0.05 | 0.00 | 44 | 1006.1 |
| 20260504182956 | 22 | 245 | 17.7 | 51.5 | 0.00 | 0.05 | 0.00 | 43 | 1006.1 |
| 20260504182856 | 22 | 203 | 17.7 | 51.5 | 0.00 | 0.05 | 0.00 | 43 | 1006.1 |
| 20260504182758 | 23 | 201 | 20.9 | 51.5 | 0.00 | 0.05 | 0.00 | 43 | 1006.1 |
| 20260504182658 | 23 | 246 | 19.3 | 51.5 | 0.00 | 0.05 | 0.00 | 43 | 1006.1 |
| 20260504182558 | 23 | 197 | 20.9 | 51.5 | 0.00 | 0.05 | 0.00 | 43 | 1006.1 |
| 20260504182458 | 23 | 186 | 20.9 | 51.5 | 0.00 | 0.05 | 0.00 | 42 | 1006.1 |
| 20260504182358 | 23 | 203 | 14.5 | 51.5 | 0.00 | 0.05 | 0.00 | 43 | 1006.1 |
| 20260504182258 | 23 | 179 | 17.7 | 51.5 | 0.00 | 0.05 | 0.00 | 42 | 1006.1 |
| 20260504182158 | 23 | 197 | 30.6 | 51.5 | 0.00 | 0.05 | 0.00 | 42 | 1005.8 |
| 20260504182058 | 23 | 156 | 22.5 | 38.6 | 0.00 | 0.05 | 0.00 | 42 | 1005.8 |
| 20260504181958 | 23 | 197 | 20.9 | 38.6 | 0.00 | 0.05 | 0.00 | 41 | 1005.8 |
| 20260504181858 | 24 | 179 | 16.1 | 38.6 | 0.00 | 0.05 | 0.00 | 43 | 1005.8 |
| 20260504181758 | 23 | 188 | 17.7 | 38.6 | 0.00 | 0.05 | 0.00 | 42 | 1005.8 |
| 20260504181658 | 23 | 174 | 11.3 | 38.6 | 0.00 | 0.05 | 0.00 | 41 | 1005.8 |
| 20260504181558 | 23 | 316 | 8.0 | 38.6 | 0.00 | 0.05 | 0.00 | 43 | 1006.1 |
| 20260504181458 | 23 | 208 | 12.9 | 38.6 | 0.00 | 0.05 | 0.00 | 42 | 1006.1 |
| 20260504181358 | 23 | 235 | 22.5 | 38.6 | 0.00 | 0.05 | 0.00 | 41 | 1006.1 |
| 20260504181300 | 23 | 153 | 14.5 | 32.2 | 0.00 | 0.05 | 0.00 | 42 | 1005.8 |
| 20260504181200 | 23 | 285 | 9.7 | 32.2 | 0.00 | 0.05 | 0.00 | 43 | 1005.8 |
| 20260504181100 | 23 | 214 | 16.1 | 35.4 | 0.00 | 0.05 | 0.00 | 42 | 1005.8 |
| 20260504181000 | 23 | 267 | 19.3 | 35.4 | 0.00 | 0.05 | 0.00 | 43 | 1006.1 |
| 20260504180900 | 23 | 200 | 16.1 | 35.4 | 0.00 | 0.05 | 0.00 | 41 | 1006.1 |
| 20260504180800 | 23 | 163 | 17.7 | 35.4 | 0.00 | 0.05 | 0.00 | 42 | 1006.1 |
| 20260504180700 | 23 | 198 | 14.5 | 35.4 | 0.00 | 0.05 | 0.00 | 42 | 1006.1 |
| 20260504180600 | 23 | 166 | 17.7 | 35.4 | 0.00 | 0.05 | 0.00 | 42 | 1006.1 |
| 20260504180500 | 23 | 188 | 17.7 | 35.4 | 0.00 | 0.05 | 0.00 | 42 | 1006.1 |
| 20260504180400 | 23 | 219 | 16.1 | 35.4 | 0.00 | 0.05 | 0.00 | 41 | 1005.8 |
| 20260504180300 | 23 | 248 | 19.3 | 38.6 | 0.00 | 0.05 | 0.00 | 40 | 1005.8 |
| 20260504180200 | 23 | 201 | 12.9 | 38.6 | 0.00 | 0.05 | 0.00 | 42 | 1005.8 |
| 20260504180100 | 23 | 212 | 17.7 | 38.6 | 0.00 | 0.05 | 0.00 | 42 | 1006.1 |
| 20260504180000 | 23 | 183 | 12.9 | 38.6 | 0.00 | 0.05 | 0.00 | 42 | 1005.8 |
| 20260504175900 | 23 | 176 | 16.1 | 38.6 | 0.00 | 0.05 | 0.00 | 42 | 1005.8 |
| 20260504175800 | 23 | 167 | 20.9 | 38.6 | 0.00 | 0.05 | 0.00 | 42 | 1005.8 |
| 20260504175702 | 23 | 229 | 11.3 | 38.6 | 0.00 | 0.05 | 0.00 | 43 | 1005.8 |
| 20260504175602 | 23 | 229 | 17.7 | 38.6 | 0.00 | 0.05 | 0.00 | 41 | 1005.8 |
| 20260504175502 | 23 | 160 | 20.9 | 38.6 | 0.00 | 0.05 | 0.00 | 40 | 1005.8 |
| 20260504175402 | 23 | 201 | 17.7 | 38.6 | 0.00 | 0.05 | 0.00 | 41 | 1005.8 |
| 20260504175304 | 23 | 243 | 11.3 | 32.2 | 0.00 | 0.05 | 0.00 | 40 | 1005.8 |
| 20260504175202 | 23 | 198 | 11.3 | 32.2 | 0.00 | 0.05 | 0.00 | 40 | 1005.8 |
| 20260504175102 | 23 | 195 | 12.9 | 32.2 | 0.00 | 0.05 | 0.00 | 41 | 1005.8 |
| 20260504175002 | 23 | 180 | 9.7 | 32.2 | 0.00 | 0.05 | 0.00 | 41 | 1005.8 |
| 20260504174902 | 23 | 232 | 9.7 | 32.2 | 0.00 | 0.05 | 0.00 | 42 | 1005.8 |
| 20260504174802 | 23 | 235 | 8.0 | 32.2 | 0.00 | 0.05 | 0.00 | 42 | 1005.8 |
| 20260504174702 | 23 | 205 | 16.1 | 33.8 | 0.00 | 0.05 | 0.00 | 42 | 1005.8 |
| 20260504174602 | 23 | 170 | 16.1 | 33.8 | 0.00 | 0.05 | 0.00 | 42 | 1005.8 |
| 20260504174502 | 23 | 172 | 14.5 | 33.8 | 0.00 | 0.05 | 0.00 | 41 | 1005.8 |
| 20260504174402 | 23 | 212 | 14.5 | 33.8 | 0.00 | 0.05 | 0.00 | 41 | 1005.8 |
| 20260504174302 | 23 | 191 | 11.3 | 33.8 | 0.00 | 0.05 | 0.00 | 41 | 1005.8 |
| 20260504174204 | 23 | 219 | 12.9 | 33.8 | 0.00 | 0.05 | 0.00 | 42 | 1005.8 |
| 20260504174104 | 23 | 242 | 9.7 | 33.8 | 0.00 | 0.05 | 0.00 | 41 | 1005.8 |
| 20260504174004 | 23 | 226 | 3.2 | 33.8 | 0.00 | 0.05 | 0.00 | 42 | 1005.8 |
| 20260504173904 | 23 | 266 | 8.0 | 33.8 | 0.00 | 0.05 | 0.00 | 42 | 1005.8 |
| 20260504173804 | 23 | 225 | 16.1 | 33.8 | 0.00 | 0.05 | 0.00 | 41 | 1005.8 |
| 20260504173704 | 23 | 304 | 12.9 | 25.7 | 0.00 | 0.05 | 0.00 | 41 | 1005.8 |
| 20260504173604 | 23 | 174 | 4.8 | 25.7 | 0.00 | 0.05 | 0.00 | 42 | 1005.8 |
| 20260504173504 | 23 | 167 | 6.4 | 25.7 | 0.00 | 0.05 | 0.00 | 41 | 1005.8 |
| 20260504173404 | 23 | 243 | 9.7 | 25.7 | 0.00 | 0.05 | 0.00 | 42 | 1006.1 |
| 20260504173304 | 23 | 264 | 12.9 | 37.0 | 0.00 | 0.05 | 0.00 | 39 | 1006.1 |
| 20260504173204 | 23 | 100 | 8.0 | 37.0 | 0.00 | 0.05 | 0.00 | 41 | 1006.1 |
| 20260504173104 | 23 | 1 | 6.4 | 37.0 | 0.00 | 0.05 | 0.00 | 41 | 1006.1 |
| 20260504173004 | 23 | 214 | 6.4 | 37.0 | 0.00 | 0.05 | 0.00 | 41 | 1006.1 |
| 20260504172904 | 23 | 212 | 12.9 | 37.0 | 0.00 | 0.05 | 0.00 | 40 | 1006.1 |
| 20260504172804 | 23 | 246 | 6.4 | 37.0 | 0.00 | 0.05 | 0.00 | 43 | 1006.1 |
| 20260504172706 | 23 | 135 | 4.8 | 37.0 | 0.00 | 0.05 | 0.00 | 43 | 1006.1 |
| 20260504172606 | 23 | 180 | 6.4 | 37.0 | 0.00 | 0.05 | 0.00 | 43 | 1006.1 |
| 20260504172506 | 23 | 284 | 6.4 | 37.0 | 0.00 | 0.05 | 0.00 | 43 | 1006.1 |
| 20260504172406 | 23 | 211 | 19.3 | 37.0 | 0.00 | 0.05 | 0.00 | 42 | 1006.1 |
| 20260504172306 | 23 | 203 | 16.1 | 30.6 | 0.00 | 0.05 | 0.00 | 41 | 1006.1 |
| 20260504172206 | 23 | 210 | 11.3 | 27.4 | 0.00 | 0.05 | 0.00 | 41 | 1006.1 |
| 20260504172106 | 23 | 207 | 11.3 | 30.6 | 0.00 | 0.05 | 0.00 | 42 | 1006.1 |
| 20260504172006 | 23 | 195 | 11.3 | 32.2 | 0.00 | 0.05 | 0.00 | 42 | 1006.1 |
| 20260504171906 | 23 | 225 | 9.7 | 33.8 | 0.00 | 0.05 | 0.00 | 43 | 1006.1 |
| 20260504171806 | 23 | 266 | 16.1 | 33.8 | 0.00 | 0.05 | 0.00 | 42 | 1006.1 |
| 20260504171706 | 23 | 204 | 12.9 | 33.8 | 0.00 | 0.05 | 0.00 | 42 | 1006.1 |
| 20260504171606 | 23 | 190 | 8.0 | 33.8 | 0.00 | 0.05 | 0.00 | 43 | 1006.1 |
| 20260504171506 | 22 | 208 | 12.9 | 33.8 | 0.00 | 0.05 | 0.00 | 43 | 1006.1 |
| 20260504171406 | 22 | 187 | 14.5 | 33.8 | 0.00 | 0.05 | 0.00 | 41 | 1006.1 |
| 20260504171306 | 22 | 201 | 11.3 | 33.8 | 0.00 | 0.05 | 0.00 | 42 | 1006.5 |
| 20260504171208 | 22 | 203 | 19.3 | 33.8 | 0.00 | 0.05 | 0.00 | 42 | 1006.1 |
| 20260504171108 | 22 | 231 | 17.7 | 33.8 | 0.00 | 0.05 | 0.00 | 43 | 1006.1 |
| 20260504171008 | 22 | 179 | 16.1 | 33.8 | 0.00 | 0.05 | 0.00 | 42 | 1006.1 |
| 20260504170908 | 22 | 191 | 17.7 | 33.8 | 0.00 | 0.05 | 0.00 | 42 | 1006.5 |
| 20260504170808 | 23 | 207 | 14.5 | 33.8 | 0.00 | 0.05 | 0.00 | 43 | 1006.1 |
| 20260504170708 | 23 | 201 | 12.9 | 33.8 | 0.00 | 0.05 | 0.00 | 42 | 1006.5 |
| 20260504170608 | 23 | 248 | 8.0 | 33.8 | 0.00 | 0.05 | 0.00 | 42 | 1006.1 |
| 20260504170508 | 23 | 277 | 12.9 | 33.8 | 0.00 | 0.05 | 0.00 | 42 | 1006.5 |
| 20260504170408 | 23 | 321 | 9.7 | 33.8 | 0.00 | 0.05 | 0.00 | 44 | 1006.5 |
| 20260504170308 | 23 | 179 | 11.3 | 33.8 | 0.00 | 0.05 | 0.00 | 44 | 1006.5 |
| 20260504170208 | 22 | 184 | 11.3 | 33.8 | 0.00 | 0.05 | 0.00 | 43 | 1006.5 |
| 20260504170108 | 22 | 201 | 14.5 | 33.8 | 0.00 | 0.05 | 0.00 | 44 | 1006.5 |
| 20260504160416 | 20 | 217 | 12.9 | 30.6 | 0.00 | 0.05 | 0.00 | 53 | 1007.5 |
| 20260504160316 | 20 | 177 | 12.9 | 30.6 | 0.00 | 0.05 | 0.00 | 54 | 1007.5 |
| 20260504160216 | 20 | 174 | 11.3 | 30.6 | 0.00 | 0.05 | 0.00 | 53 | 1007.5 |
| 20260504160116 | 20 | 195 | 11.3 | 30.6 | 0.00 | 0.05 | 0.00 | 53 | 1007.5 |
| 20260504151122 | 17 | 186 | 9.7 | 25.7 | 0.00 | 0.05 | 0.00 | 57 | 1007.5 |
| 20260504151024 | 17 | 190 | 9.7 | 25.7 | 0.00 | 0.05 | 0.00 | 57 | 1007.5 |
| 20260504150924 | 17 | 169 | 11.3 | 25.7 | 0.00 | 0.05 | 0.00 | 57 | 1007.5 |
| 20260504150824 | 17 | 197 | 14.5 | 25.7 | 0.00 | 0.05 | 0.00 | 58 | 1007.5 |
| 20260504150724 | 17 | 195 | 12.9 | 25.7 | 0.00 | 0.05 | 0.00 | 58 | 1007.8 |
| 20260504150624 | 17 | 212 | 12.9 | 25.7 | 0.00 | 0.05 | 0.00 | 58 | 1007.8 |
| 20260504150524 | 17 | 191 | 12.9 | 25.7 | 0.00 | 0.05 | 0.00 | 57 | 1007.5 |
| 20260504150424 | 17 | 187 | 16.1 | 25.7 | 0.00 | 0.05 | 0.00 | 56 | 1007.8 |
| 20260504150324 | 17 | 217 | 9.7 | 27.4 | 0.00 | 0.05 | 0.00 | 57 | 1007.8 |
| 20260504150224 | 17 | 188 | 12.9 | 27.4 | 0.00 | 0.05 | 0.00 | 58 | 1007.8 |
| 20260504150124 | 17 | 204 | 8.0 | 27.4 | 0.00 | 0.05 | 0.00 | 57 | 1007.8 |
| 20260504141330 | 16 | 180 | 11.3 | 22.5 | 0.00 | 0.05 | 0.00 | 60 | 1007.8 |
| 20260504141230 | 16 | 131 | 9.7 | 22.5 | 0.00 | 0.05 | 0.00 | 60 | 1007.8 |
| 20260504141130 | 16 | 172 | 11.3 | 22.5 | 0.00 | 0.05 | 0.00 | 60 | 1008.2 |
| 20260504141030 | 16 | 193 | 12.9 | 22.5 | 0.00 | 0.05 | 0.00 | 61 | 1008.2 |
| 20260504140932 | 16 | 205 | 14.5 | 22.5 | 0.00 | 0.05 | 0.00 | 60 | 1008.2 |
| 20260504140832 | 16 | 207 | 12.9 | 25.7 | 0.00 | 0.05 | 0.00 | 59 | 1008.2 |
| 20260504140732 | 16 | 221 | 12.9 | 25.7 | 0.00 | 0.05 | 0.00 | 59 | 1008.2 |
| 20260504140632 | 16 | 211 | 9.7 | 25.7 | 0.00 | 0.05 | 0.00 | 61 | 1008.2 |
| 20260504140532 | 16 | 180 | 9.7 | 25.7 | 0.00 | 0.05 | 0.00 | 61 | 1008.2 |
| 20260504140432 | 16 | 245 | 8.0 | 25.7 | 0.00 | 0.05 | 0.00 | 61 | 1008.2 |
| 20260504140332 | 16 | 183 | 11.3 | 25.7 | 0.00 | 0.05 | 0.00 | 61 | 1008.2 |
| 20260504140232 | 15 | 212 | 11.3 | 27.4 | 0.00 | 0.05 | 0.00 | 60 | 1008.2 |
| 20260504140132 | 15 | 190 | 9.7 | 27.4 | 0.00 | 0.05 | 0.00 | 60 | 1008.2 |
| 20260504130740 | 13 | 215 | 9.7 | 19.3 | 0.00 | 0.05 | 0.00 | 63 | 1008.5 |
| 20260504130640 | 13 | 172 | 6.4 | 19.3 | 0.00 | 0.05 | 0.00 | 65 | 1008.2 |
| 20260504130540 | 13 | 122 | 11.3 | 19.3 | 0.00 | 0.05 | 0.00 | 65 | 1008.5 |
| 20260504130440 | 13 | 156 | 11.3 | 19.3 | 0.00 | 0.05 | 0.00 | 64 | 1008.5 |
| 20260504130340 | 13 | 174 | 12.9 | 19.3 | 0.00 | 0.05 | 0.00 | 63 | 1008.5 |
| 20260504130240 | 13 | 159 | 12.9 | 19.3 | 0.00 | 0.05 | 0.00 | 64 | 1008.5 |
| 20260504130140 | 13 | 210 | 11.3 | 19.3 | 0.00 | 0.05 | 0.00 | 64 | 1008.5 |
| 20260504120248 | 11 | 181 | 9.7 | 19.3 | 0.00 | 0.05 | 0.00 | 68 | 1008.8 |
| 20260504120148 | 11 | 159 | 8.0 | 19.3 | 0.00 | 0.05 | 0.00 | 68 | 1008.8 |
| 20260504110654 | 10 | 187 | 9.7 | 14.5 | 0.00 | 0.05 | 0.00 | 70 | 1008.5 |
| 20260504110556 | 10 | 145 | 8.0 | 14.5 | 0.00 | 0.05 | 0.00 | 70 | 1008.5 |
| 20260504110456 | 10 | 207 | 9.7 | 17.7 | 0.00 | 0.05 | 0.00 | 70 | 1008.5 |
| 20260504110356 | 10 | 179 | 6.4 | 17.7 | 0.00 | 0.05 | 0.00 | 70 | 1008.5 |
| 20260504110256 | 10 | 148 | 8.0 | 17.7 | 0.00 | 0.05 | 0.00 | 70 | 1008.5 |
| 20260504110156 | 10 | 195 | 9.7 | 17.7 | 0.00 | 0.05 | 0.00 | 70 | 1008.5 |
| 20260504100550 | 10 | 214 | 8.0 | 16.1 | 0.00 | 0.05 | 0.00 | 71 | 1008.8 |
| 20260504100450 | 10 | 184 | 9.7 | 16.1 | 0.00 | 0.05 | 0.00 | 71 | 1008.8 |
| 20260504100350 | 10 | 152 | 8.0 | 14.5 | 0.00 | 0.05 | 0.00 | 71 | 1008.8 |
| 20260504100250 | 10 | 198 | 11.3 | 14.5 | 0.00 | 0.05 | 0.00 | 71 | 1008.8 |
| 20260504100150 | 10 | 172 | 6.4 | 14.5 | 0.00 | 0.05 | 0.00 | 71 | 1008.8 |
| 20260504081950 | 10 | 193 | 9.7 | 17.7 | 0.00 | 0.05 | 0.00 | 67 | 1009.5 |
| 20260504081850 | 10 | 211 | 9.7 | 17.7 | 0.00 | 0.05 | 0.00 | 67 | 1009.5 |
| 20260504081750 | 10 | 212 | 8.0 | 17.7 | 0.00 | 0.05 | 0.00 | 67 | 1009.5 |
| 20260504081650 | 10 | 205 | 9.7 | 17.7 | 0.00 | 0.05 | 0.00 | 67 | 1009.5 |
| 20260504081550 | 10 | 188 | 9.7 | 17.7 | 0.00 | 0.05 | 0.00 | 67 | 1009.5 |
| 20260504081450 | 10 | 194 | 8.0 | 17.7 | 0.00 | 0.05 | 0.00 | 67 | 1009.5 |
| 20260504081350 | 10 | 219 | 8.0 | 17.7 | 0.00 | 0.05 | 0.00 | 67 | 1009.5 |
| 20260504081250 | 10 | 172 | 9.7 | 17.7 | 0.00 | 0.05 | 0.00 | 67 | 1009.5 |
| 20260504081150 | 10 | 177 | 11.3 | 17.7 | 0.00 | 0.05 | 0.00 | 67 | 1009.5 |
| 20260504081050 | 10 | 198 | 8.0 | 17.7 | 0.00 | 0.05 | 0.00 | 67 | 1009.5 |
| 20260504080950 | 10 | 181 | 9.7 | 17.7 | 0.00 | 0.05 | 0.00 | 67 | 1009.5 |
| 20260504080850 | 10 | 204 | 9.7 | 17.7 | 0.00 | 0.05 | 0.00 | 67 | 1009.5 |
| 20260504080750 | 10 | 180 | 9.7 | 17.7 | 0.00 | 0.05 | 0.00 | 67 | 1009.9 |
| 20260504080650 | 10 | 195 | 9.7 | 17.7 | 0.00 | 0.05 | 0.00 | 67 | 1009.5 |
| 20260504080550 | 10 | 193 | 12.9 | 17.7 | 0.00 | 0.05 | 0.00 | 67 | 1009.9 |
| 20260504080450 | 10 | 172 | 6.4 | 17.7 | 0.00 | 0.05 | 0.00 | 67 | 1009.9 |
| 20260504080350 | 10 | 158 | 4.8 | 17.7 | 0.00 | 0.05 | 0.00 | 67 | 1009.9 |
| 20260504080250 | 10 | 228 | 8.0 | 17.7 | 0.00 | 0.05 | 0.00 | 67 | 1009.9 |
| 20260504080150 | 10 | 200 | 9.7 | 17.7 | 0.00 | 0.05 | 0.00 | 67 | 1009.5 |
| 20260504070350 | 11 | 146 | 9.7 | 16.1 | 0.00 | 0.05 | 0.00 | 65 | 1010.2 |
| 20260504070250 | 11 | 187 | 9.7 | 12.9 | 0.00 | 0.05 | 0.00 | 65 | 1010.2 |
| 20260504070150 | 11 | 201 | 8.0 | 12.9 | 0.00 | 0.05 | 0.00 | 65 | 1010.2 |
| 20260504060150 | 11 | 193 | 8.0 | 19.3 | 0.00 | 0.05 | 0.00 | 65 | 1010.5 |
| 20260504050750 | 11 | 207 | 8.0 | 17.7 | 0.00 | 0.05 | 0.00 | 62 | 1011.2 |
| 20260504050650 | 11 | 208 | 9.7 | 17.7 | 0.00 | 0.05 | 0.00 | 62 | 1011.2 |
| 20260504050550 | 11 | 177 | 9.7 | 17.7 | 0.00 | 0.05 | 0.00 | 62 | 1011.2 |
| 20260504050450 | 11 | 195 | 9.7 | 17.7 | 0.00 | 0.05 | 0.00 | 62 | 1011.2 |
| 20260504050350 | 11 | 210 | 9.7 | 19.3 | 0.00 | 0.05 | 0.00 | 62 | 1011.2 |
| 20260504050250 | 11 | 139 | 9.7 | 19.3 | 0.00 | 0.05 | 0.00 | 62 | 1011.2 |
| 20260504050150 | 11 | 214 | 9.7 | 19.3 | 0.00 | 0.05 | 0.00 | 62 | 1011.2 |
| 20260504045950 | 11 | 195 | 8.0 | 19.3 | 0.00 | 0.05 | 0.00 | 62 | 1011.2 |
| 20260504045850 | 11 | 150 | 9.7 | 19.3 | 0.00 | 0.05 | 0.00 | 62 | 1011.2 |
| 20260504045750 | 11 | 142 | 9.7 | 19.3 | 0.00 | 0.05 | 0.00 | 62 | 1011.2 |
| 20260504045650 | 11 | 128 | 9.7 | 19.3 | 0.00 | 0.05 | 0.00 | 62 | 1011.2 |
| 20260504045550 | 11 | 155 | 8.0 | 19.3 | 0.00 | 0.05 | 0.00 | 62 | 1011.2 |
| 20260504045450 | 11 | 143 | 11.3 | 19.3 | 0.00 | 0.05 | 0.00 | 62 | 1011.2 |
| 20260504045350 | 11 | 163 | 9.7 | 19.3 | 0.00 | 0.05 | 0.00 | 62 | 1011.2 |
| 20260504045250 | 11 | 165 | 11.3 | 19.3 | 0.00 | 0.05 | 0.00 | 62 | 1011.2 |
| 20260504045150 | 11 | 169 | 9.7 | 19.3 | 0.00 | 0.05 | 0.00 | 62 | 1011.2 |
| 20260504045050 | 11 | 160 | 9.7 | 19.3 | 0.00 | 0.05 | 0.00 | 62 | 1011.2 |
| 20260504044950 | 11 | 259 | 11.3 | 19.3 | 0.00 | 0.05 | 0.00 | 62 | 1011.2 |
| 20260504044850 | 11 | 145 | 11.3 | 19.3 | 0.00 | 0.05 | 0.00 | 61 | 1011.2 |
| 20260504044750 | 11 | 152 | 6.4 | 19.3 | 0.00 | 0.05 | 0.00 | 62 | 1011.2 |
| 20260504044650 | 11 | 193 | 9.7 | 19.3 | 0.00 | 0.05 | 0.00 | 62 | 1011.2 |
| 20260504044550 | 11 | 136 | 9.7 | 19.3 | 0.00 | 0.05 | 0.00 | 62 | 1011.2 |
| 20260504044450 | 11 | 187 | 9.7 | 19.3 | 0.00 | 0.05 | 0.00 | 62 | 1011.2 |
| 20260504044350 | 11 | 152 | 11.3 | 17.7 | 0.00 | 0.05 | 0.00 | 62 | 1011.2 |
| 20260504044250 | 11 | 145 | 11.3 | 17.7 | 0.00 | 0.05 | 0.00 | 62 | 1011.2 |
| 20260504044150 | 11 | 143 | 8.0 | 14.5 | 0.00 | 0.05 | 0.00 | 62 | 1011.2 |
| 20260504044050 | 11 | 163 | 9.7 | 14.5 | 0.00 | 0.05 | 0.00 | 62 | 1011.2 |
| 20260504043950 | 11 | 179 | 8.0 | 14.5 | 0.00 | 0.05 | 0.00 | 63 | 1011.2 |
| 20260504043850 | 11 | 150 | 8.0 | 14.5 | 0.00 | 0.05 | 0.00 | 63 | 1011.2 |
| 20260504043750 | 11 | 204 | 8.0 | 14.5 | 0.00 | 0.05 | 0.00 | 63 | 1011.2 |
| 20260504043650 | 11 | 156 | 9.7 | 14.5 | 0.00 | 0.05 | 0.00 | 63 | 1011.2 |
| 20260504043550 | 11 | 169 | 8.0 | 14.5 | 0.00 | 0.05 | 0.00 | 63 | 1011.2 |
| 20260504043450 | 11 | 132 | 6.4 | 16.1 | 0.00 | 0.05 | 0.00 | 63 | 1011.2 |
| 20260504043350 | 11 | 191 | 9.7 | 17.7 | 0.00 | 0.05 | 0.00 | 63 | 1011.2 |
| 20260504043250 | 11 | 170 | 8.0 | 19.3 | 0.00 | 0.05 | 0.00 | 63 | 1011.6 |
| 20260504043150 | 11 | 158 | 6.4 | 19.3 | 0.00 | 0.05 | 0.00 | 63 | 1011.2 |
| 20260504043050 | 11 | 138 | 9.7 | 19.3 | 0.00 | 0.05 | 0.00 | 63 | 1011.6 |
| 20260504042950 | 11 | 163 | 4.8 | 19.3 | 0.00 | 0.05 | 0.00 | 63 | 1011.6 |
| 20260504042850 | 11 | 158 | 6.4 | 19.3 | 0.00 | 0.05 | 0.00 | 63 | 1011.6 |
| 20260504042750 | 11 | 146 | 9.7 | 19.3 | 0.00 | 0.05 | 0.00 | 63 | 1011.6 |
| 20260504042650 | 11 | 150 | 8.0 | 19.3 | 0.00 | 0.05 | 0.00 | 63 | 1011.6 |
| 20260504042550 | 11 | 179 | 9.7 | 19.3 | 0.00 | 0.05 | 0.00 | 63 | 1011.6 |
| 20260504042450 | 11 | 165 | 12.9 | 19.3 | 0.00 | 0.05 | 0.00 | 62 | 1011.6 |
| 20260504042350 | 11 | 170 | 11.3 | 19.3 | 0.00 | 0.05 | 0.00 | 63 | 1011.6 |
| 20260504042250 | 11 | 191 | 6.4 | 19.3 | 0.00 | 0.05 | 0.00 | 63 | 1011.6 |
| 20260504042150 | 11 | 117 | 6.4 | 19.3 | 0.00 | 0.05 | 0.00 | 63 | 1011.6 |
| 20260504042050 | 11 | 180 | 9.7 | 19.3 | 0.00 | 0.05 | 0.00 | 63 | 1011.6 |
| 20260504041951 | 11 | 166 | 11.3 | 19.3 | 0.00 | 0.05 | 0.00 | 63 | 1011.6 |
| 20260504041850 | 11 | 156 | 9.7 | 19.3 | 0.00 | 0.05 | 0.00 | 63 | 1011.6 |
| 20260504041750 | 11 | 173 | 9.7 | 19.3 | 0.00 | 0.05 | 0.00 | 63 | 1011.6 |
| 20260504041650 | 11 | 152 | 14.5 | 19.3 | 0.00 | 0.05 | 0.00 | 63 | 1011.6 |
| 20260504041550 | 11 | 166 | 9.7 | 19.3 | 0.00 | 0.05 | 0.00 | 64 | 1011.6 |
| 20260504041450 | 11 | 204 | 8.0 | 19.3 | 0.00 | 0.05 | 0.00 | 63 | 1011.6 |
| 20260504041350 | 11 | 121 | 6.4 | 19.3 | 0.00 | 0.05 | 0.00 | 64 | 1011.6 |
| 20260504041250 | 11 | 180 | 9.7 | 19.3 | 0.00 | 0.05 | 0.00 | 64 | 1011.6 |
| 20260504041150 | 11 | 169 | 12.9 | 19.3 | 0.00 | 0.05 | 0.00 | 63 | 1011.6 |
| 20260504041050 | 11 | 160 | 8.0 | 16.1 | 0.00 | 0.05 | 0.00 | 64 | 1011.6 |
| 20260504040950 | 11 | 122 | 6.4 | 14.5 | 0.00 | 0.05 | 0.00 | 64 | 1011.9 |
| 20260504040850 | 11 | 138 | 4.8 | 14.5 | 0.00 | 0.05 | 0.00 | 64 | 1011.6 |
| 20260504040750 | 11 | 153 | 6.4 | 16.1 | 0.00 | 0.05 | 0.00 | 64 | 1011.6 |
| 20260504040650 | 11 | 146 | 9.7 | 16.1 | 0.00 | 0.05 | 0.00 | 64 | 1011.9 |
| 20260504040550 | 11 | 205 | 9.7 | 16.1 | 0.00 | 0.05 | 0.00 | 63 | 1011.9 |
| 20260504040450 | 11 | 169 | 11.3 | 16.1 | 0.00 | 0.05 | 0.00 | 63 | 1011.9 |
| 20260504040350 | 11 | 177 | 8.0 | 19.3 | 0.00 | 0.05 | 0.00 | 63 | 1011.9 |
| 20260504040250 | 11 | 211 | 9.7 | 19.3 | 0.00 | 0.05 | 0.00 | 63 | 1011.9 |
| 20260504040150 | 11 | 187 | 8.0 | 19.3 | 0.00 | 0.05 | 0.00 | 63 | 1011.9 |
| 20260504040050 | 11 | 166 | 11.3 | 19.3 | 0.00 | 0.05 | 0.00 | 63 | 1011.9 |
| 20260504035950 | 11 | 156 | 11.3 | 19.3 | 0.00 | 0.05 | 0.00 | 64 | 1011.9 |
| 20260504035850 | 11 | 160 | 9.7 | 19.3 | 0.00 | 0.00 | 0.05 | 63 | 1011.9 |
| 20260504035750 | 11 | 139 | 6.4 | 19.3 | 0.00 | 0.00 | 0.05 | 64 | 1011.9 |
| 20260504035650 | 11 | 215 | 6.4 | 19.3 | 0.00 | 0.00 | 0.05 | 63 | 1011.9 |
| 20260504035550 | 11 | 181 | 9.7 | 19.3 | 0.00 | 0.00 | 0.05 | 63 | 1011.9 |
| 20260504035450 | 11 | 177 | 9.7 | 19.3 | 0.00 | 0.00 | 0.05 | 63 | 1011.9 |
| 20260504035350 | 11 | 184 | 8.0 | 19.3 | 0.00 | 0.00 | 0.05 | 64 | 1011.9 |
| 20260504035250 | 11 | 183 | 8.0 | 19.3 | 0.00 | 0.00 | 0.05 | 63 | 1011.9 |
| 20260504035150 | 11 | 149 | 8.0 | 19.3 | 0.00 | 0.00 | 0.05 | 63 | 1011.9 |
| 20260504035050 | 11 | 145 | 8.0 | 19.3 | 0.00 | 0.00 | 0.05 | 64 | 1011.9 |
| 20260504034950 | 11 | 166 | 9.7 | 19.3 | 0.00 | 0.00 | 0.05 | 64 | 1011.9 |
| 20260504034850 | 11 | 150 | 8.0 | 19.3 | 0.00 | 0.00 | 0.05 | 64 | 1011.9 |
| 20260504034750 | 11 | 208 | 11.3 | 19.3 | 0.00 | 0.00 | 0.05 | 63 | 1011.9 |
| 20260504034650 | 11 | 165 | 9.7 | 19.3 | 0.00 | 0.00 | 0.05 | 64 | 1011.9 |
| 20260504034550 | 11 | 165 | 9.7 | 17.7 | 0.00 | 0.00 | 0.05 | 63 | 1011.9 |
| 20260504034450 | 11 | 183 | 8.0 | 17.7 | 0.00 | 0.00 | 0.05 | 64 | 1011.9 |
| 20260504034350 | 11 | 155 | 9.7 | 17.7 | 0.00 | 0.00 | 0.05 | 64 | 1011.9 |
| 20260504034250 | 11 | 160 | 9.7 | 17.7 | 0.00 | 0.00 | 0.05 | 64 | 1011.9 |
| 20260504034150 | 11 | 177 | 9.7 | 17.7 | 0.00 | 0.00 | 0.05 | 64 | 1011.9 |
| 20260504034050 | 11 | 120 | 9.7 | 17.7 | 0.00 | 0.00 | 0.05 | 65 | 1011.9 |
| 20260504033950 | 11 | 195 | 11.3 | 17.7 | 0.00 | 0.00 | 0.05 | 64 | 1011.9 |
| 20260504033850 | 11 | 142 | 9.7 | 22.5 | 0.00 | 0.00 | 0.05 | 64 | 1011.9 |
| 20260504033750 | 11 | 174 | 8.0 | 22.5 | 0.00 | 0.00 | 0.05 | 65 | 1011.9 |
| 20260504033650 | 11 | 187 | 9.7 | 22.5 | 0.00 | 0.00 | 0.05 | 65 | 1011.9 |
| 20260504033550 | 11 | 138 | 9.7 | 22.5 | 0.00 | 0.00 | 0.05 | 65 | 1011.9 |
| 20260504033450 | 11 | 149 | 9.7 | 22.5 | 0.00 | 0.00 | 0.05 | 65 | 1011.9 |
| 20260504033350 | 11 | 132 | 11.3 | 22.5 | 0.00 | 0.00 | 0.05 | 65 | 1011.9 |
| 20260504033250 | 11 | 180 | 6.4 | 22.5 | 0.00 | 0.00 | 0.05 | 66 | 1011.9 |
| 20260504033150 | 11 | 156 | 8.0 | 22.5 | 0.00 | 0.00 | 0.05 | 65 | 1011.9 |
| 20260504033050 | 11 | 177 | 8.0 | 22.5 | 0.00 | 0.00 | 0.05 | 65 | 1012.2 |
| 20260504032950 | 11 | 195 | 11.3 | 22.5 | 0.00 | 0.00 | 0.05 | 65 | 1011.9 |
| 20260504032850 | 11 | 149 | 8.0 | 16.1 | 0.00 | 0.00 | 0.05 | 66 | 1012.2 |
| 20260504032750 | 11 | 131 | 6.4 | 16.1 | 0.00 | 0.00 | 0.05 | 66 | 1012.2 |
| 20260504032650 | 11 | 158 | 8.0 | 16.1 | 0.00 | 0.00 | 0.05 | 66 | 1012.2 |
| 20260504032550 | 11 | 165 | 6.4 | 16.1 | 0.00 | 0.00 | 0.05 | 66 | 1012.2 |
| 20260504032450 | 11 | 139 | 8.0 | 16.1 | 0.00 | 0.00 | 0.05 | 66 | 1012.2 |
| 20260504032350 | 11 | 86 | 8.0 | 16.1 | 0.00 | 0.00 | 0.05 | 66 | 1012.2 |
| 20260504032250 | 11 | 125 | 8.0 | 16.1 | 0.00 | 0.00 | 0.05 | 66 | 1012.2 |
| 20260504032150 | 11 | 84 | 8.0 | 16.1 | 0.00 | 0.00 | 0.05 | 66 | 1012.2 |
| 20260504032050 | 11 | 124 | 8.0 | 16.1 | 0.00 | 0.00 | 0.05 | 66 | 1012.2 |
| 20260504031950 | 11 | 158 | 11.3 | 16.1 | 0.00 | 0.00 | 0.05 | 66 | 1012.2 |
| 20260504031850 | 11 | 148 | 6.4 | 16.1 | 0.00 | 0.00 | 0.05 | 66 | 1012.2 |
| 20260504031750 | 11 | 141 | 6.4 | 16.1 | 0.00 | 0.00 | 0.05 | 66 | 1012.2 |
| 20260504031650 | 11 | 158 | 6.4 | 16.1 | 0.00 | 0.00 | 0.05 | 66 | 1012.2 |
| 20260504031550 | 11 | 155 | 6.4 | 16.1 | 0.00 | 0.00 | 0.05 | 66 | 1012.2 |
| 20260504031450 | 11 | 141 | 8.0 | 16.1 | 0.00 | 0.00 | 0.05 | 66 | 1012.2 |
| 20260504031350 | 11 | 111 | 6.4 | 16.1 | 0.00 | 0.00 | 0.05 | 66 | 1012.2 |
| 20260504031250 | 11 | 142 | 9.7 | 17.7 | 0.00 | 0.00 | 0.05 | 65 | 1012.2 |
| 20260504031150 | 11 | 150 | 9.7 | 17.7 | 0.00 | 0.00 | 0.05 | 66 | 1012.2 |
| 20260504031050 | 11 | 143 | 8.0 | 17.7 | 0.00 | 0.00 | 0.05 | 66 | 1012.2 |
| 20260504030950 | 11 | 136 | 8.0 | 17.7 | 0.00 | 0.00 | 0.05 | 66 | 1012.2 |
| 20260504030850 | 11 | 135 | 8.0 | 17.7 | 0.00 | 0.00 | 0.05 | 65 | 1012.2 |
| 20260504030750 | 11 | 148 | 8.0 | 17.7 | 0.00 | 0.00 | 0.05 | 66 | 1012.2 |
| 20260504030650 | 11 | 153 | 8.0 | 17.7 | 0.00 | 0.00 | 0.05 | 66 | 1012.2 |
| 20260504030550 | 11 | 135 | 12.9 | 17.7 | 0.00 | 0.00 | 0.05 | 65 | 1012.2 |
| 20260504030450 | 11 | 146 | 9.7 | 17.7 | 0.00 | 0.00 | 0.05 | 66 | 1012.2 |
| 20260504030350 | 11 | 174 | 11.3 | 17.7 | 0.00 | 0.00 | 0.05 | 66 | 1012.2 |
| 20260504030250 | 11 | 152 | 6.4 | 16.1 | 0.00 | 0.00 | 0.05 | 67 | 1012.2 |
| 20260504030150 | 11 | 141 | 6.4 | 16.1 | 0.00 | 0.00 | 0.05 | 67 | 1012.6 |
| 20260504030050 | 11 | 155 | 6.4 | 16.1 | 0.00 | 0.00 | 0.05 | 66 | 1012.6 |
| 20260504025950 | 11 | 156 | 8.0 | 16.1 | 0.00 | 0.00 | 0.05 | 67 | 1012.6 |
| 20260504025850 | 11 | 135 | 9.7 | 16.1 | 0.00 | 0.00 | 0.05 | 66 | 1012.6 |
| 20260504025750 | 11 | 117 | 6.4 | 16.1 | 0.00 | 0.00 | 0.05 | 66 | 1012.6 |
| 20260504025650 | 11 | 158 | 11.3 | 16.1 | 0.00 | 0.00 | 0.05 | 66 | 1012.6 |
| 20260504025550 | 11 | 128 | 8.0 | 17.7 | 0.00 | 0.00 | 0.05 | 67 | 1012.6 |
| 20260504025450 | 11 | 145 | 8.0 | 17.7 | 0.00 | 0.00 | 0.05 | 67 | 1012.6 |
| 20260504025350 | 11 | 166 | 6.4 | 17.7 | 0.00 | 0.00 | 0.05 | 67 | 1012.6 |
| 20260504025250 | 11 | 103 | 6.4 | 17.7 | 0.00 | 0.00 | 0.05 | 67 | 1012.6 |
| 20260504025150 | 11 | 131 | 9.7 | 17.7 | 0.00 | 0.00 | 0.05 | 66 | 1012.6 |
| 20260504025050 | 11 | 166 | 11.3 | 17.7 | 0.00 | 0.00 | 0.05 | 66 | 1012.6 |
| 20260504024950 | 11 | 149 | 6.4 | 17.7 | 0.00 | 0.00 | 0.05 | 67 | 1012.6 |
| 20260504024850 | 11 | 158 | 9.7 | 17.7 | 0.00 | 0.00 | 0.05 | 67 | 1012.6 |
| 20260504024750 | 11 | 139 | 8.0 | 17.7 | 0.00 | 0.00 | 0.05 | 67 | 1012.6 |
| 20260504024650 | 11 | 162 | 11.3 | 17.7 | 0.00 | 0.00 | 0.05 | 67 | 1012.6 |
| 20260504024550 | 10 | 176 | 9.7 | 17.7 | 0.00 | 0.00 | 0.05 | 67 | 1012.6 |
| 20260504024450 | 10 | 159 | 12.9 | 17.7 | 0.00 | 0.00 | 0.05 | 67 | 1012.6 |
| 20260504024350 | 10 | 143 | 11.3 | 17.7 | 0.00 | 0.00 | 0.05 | 67 | 1012.6 |
| 20260504024250 | 10 | 143 | 8.0 | 16.1 | 0.00 | 0.00 | 0.05 | 68 | 1012.6 |
| 20260504024150 | 10 | 128 | 11.3 | 16.1 | 0.00 | 0.00 | 0.05 | 68 | 1012.6 |
| 20260504024050 | 10 | 149 | 8.0 | 16.1 | 0.00 | 0.00 | 0.05 | 69 | 1012.6 |
| 20260504023950 | 10 | 118 | 9.7 | 16.1 | 0.00 | 0.00 | 0.05 | 68 | 1012.6 |
| 20260504023850 | 10 | 152 | 8.0 | 19.3 | 0.00 | 0.00 | 0.05 | 69 | 1012.6 |
| 20260504023750 | 10 | 145 | 11.3 | 19.3 | 0.00 | 0.00 | 0.05 | 68 | 1012.6 |
| 20260504023650 | 10 | 149 | 6.4 | 19.3 | 0.00 | 0.00 | 0.05 | 69 | 1012.6 |
| 20260504023550 | 10 | 107 | 9.7 | 19.3 | 0.00 | 0.00 | 0.05 | 69 | 1012.6 |
| 20260504023450 | 10 | 149 | 9.7 | 19.3 | 0.00 | 0.00 | 0.05 | 69 | 1012.6 |
| 20260504023350 | 10 | 160 | 11.3 | 19.3 | 0.00 | 0.00 | 0.05 | 69 | 1012.6 |
| 20260504023250 | 10 | 108 | 8.0 | 19.3 | 0.00 | 0.00 | 0.05 | 70 | 1012.6 |
| 20260504023150 | 10 | 145 | 6.4 | 19.3 | 0.00 | 0.00 | 0.05 | 70 | 1012.6 |
| 20260504023050 | 10 | 152 | 9.7 | 19.3 | 0.00 | 0.00 | 0.05 | 69 | 1012.6 |
| 20260504022950 | 10 | 177 | 12.9 | 19.3 | 0.00 | 0.00 | 0.05 | 69 | 1012.6 |
| 20260504022850 | 10 | 135 | 9.7 | 16.1 | 0.00 | 0.00 | 0.05 | 70 | 1012.6 |
| 20260504022750 | 10 | 217 | 8.0 | 16.1 | 0.00 | 0.00 | 0.05 | 70 | 1012.6 |
| 20260504022650 | 10 | 176 | 12.9 | 16.1 | 0.00 | 0.00 | 0.05 | 70 | 1012.6 |
| 20260504022550 | 10 | 150 | 9.7 | 16.1 | 0.00 | 0.00 | 0.05 | 71 | 1012.6 |
| 20260504022450 | 10 | 136 | 8.0 | 16.1 | 0.00 | 0.00 | 0.05 | 71 | 1012.6 |
| 20260504022350 | 10 | 124 | 6.4 | 16.1 | 0.00 | 0.00 | 0.05 | 71 | 1012.6 |
| 20260504022250 | 10 | 143 | 8.0 | 16.1 | 0.00 | 0.00 | 0.05 | 71 | 1012.6 |
| 20260504022150 | 10 | 153 | 9.7 | 16.1 | 0.00 | 0.00 | 0.05 | 71 | 1012.6 |
| 20260504022050 | 10 | 131 | 11.3 | 16.1 | 0.00 | 0.00 | 0.05 | 71 | 1012.6 |
| 20260504021950 | 10 | 149 | 9.7 | 16.1 | 0.00 | 0.00 | 0.05 | 71 | 1012.6 |
| 20260504021850 | 10 | 172 | 8.0 | 16.1 | 0.00 | 0.00 | 0.05 | 71 | 1012.6 |
| 20260504021750 | 10 | 162 | 9.7 | 16.1 | 0.00 | 0.00 | 0.05 | 72 | 1012.6 |
| 20260504021650 | 10 | 131 | 8.0 | 16.1 | 0.00 | 0.00 | 0.05 | 71 | 1012.6 |
| 20260504021550 | 10 | 115 | 11.3 | 16.1 | 0.00 | 0.00 | 0.05 | 72 | 1012.6 |
| 20260504021450 | 10 | 114 | 9.7 | 16.1 | 0.00 | 0.00 | 0.05 | 72 | 1012.6 |
| 20260504021350 | 10 | 158 | 11.3 | 16.1 | 0.00 | 0.00 | 0.05 | 72 | 1012.6 |
| 20260504021250 | 10 | 128 | 8.0 | 17.7 | 0.00 | 0.00 | 0.05 | 73 | 1012.6 |
| 20260504021150 | 10 | 146 | 9.7 | 17.7 | 0.00 | 0.00 | 0.05 | 73 | 1012.6 |
| 20260504021050 | 10 | 138 | 8.0 | 17.7 | 0.00 | 0.00 | 0.05 | 73 | 1012.6 |
| 20260504020950 | 10 | 146 | 6.4 | 17.7 | 0.00 | 0.00 | 0.05 | 73 | 1012.6 |
| 20260504020850 | 10 | 160 | 11.3 | 17.7 | 0.00 | 0.00 | 0.05 | 72 | 1012.6 |
| 20260504020750 | 10 | 118 | 11.3 | 17.7 | 0.00 | 0.00 | 0.05 | 73 | 1012.6 |
| 20260504020650 | 10 | 143 | 9.7 | 17.7 | 0.00 | 0.00 | 0.05 | 73 | 1012.6 |
| 20260504020550 | 10 | 117 | 8.0 | 17.7 | 0.00 | 0.00 | 0.05 | 73 | 1012.6 |
| 20260504020450 | 10 | 138 | 11.3 | 17.7 | 0.00 | 0.00 | 0.05 | 72 | 1012.6 |
| 20260504020350 | 10 | 159 | 12.9 | 17.7 | 0.00 | 0.00 | 0.05 | 72 | 1012.6 |
| 20260504020250 | 10 | 100 | 9.7 | 16.1 | 0.00 | 0.00 | 0.05 | 73 | 1012.6 |
| 20260504020150 | 10 | 115 | 6.4 | 16.1 | 0.00 | 0.00 | 0.05 | 73 | 1012.6 |
| 20260504020050 | 10 | 212 | 9.7 | 16.1 | 0.00 | 0.00 | 0.05 | 73 | 1012.6 |
| 20260504015950 | 10 | 160 | 11.3 | 16.1 | 0.00 | 0.00 | 0.05 | 73 | 1012.6 |
| 20260504015850 | 10 | 146 | 11.3 | 16.1 | 0.00 | 0.00 | 0.05 | 73 | 1012.6 |
| 20260504015750 | 10 | 176 | 11.3 | 16.1 | 0.00 | 0.00 | 0.05 | 73 | 1012.6 |
| 20260504015650 | 10 | 167 | 9.7 | 19.3 | 0.00 | 0.00 | 0.05 | 74 | 1012.6 |
| 20260504015550 | 10 | 155 | 8.0 | 19.3 | 0.00 | 0.00 | 0.05 | 74 | 1012.6 |
| 20260504015450 | 10 | 121 | 8.0 | 19.3 | 0.00 | 0.00 | 0.05 | 74 | 1012.6 |
| 20260504015350 | 10 | 181 | 9.7 | 19.3 | 0.00 | 0.00 | 0.05 | 74 | 1012.6 |
| 20260504015250 | 10 | 158 | 9.7 | 19.3 | 0.00 | 0.00 | 0.05 | 74 | 1012.6 |
| 20260504015150 | 10 | 143 | 11.3 | 19.3 | 0.00 | 0.00 | 0.05 | 74 | 1012.6 |
| 20260504015050 | 10 | 107 | 8.0 | 19.3 | 0.00 | 0.00 | 0.05 | 74 | 1012.6 |
| 20260504014950 | 10 | 127 | 9.7 | 19.3 | 0.00 | 0.00 | 0.05 | 74 | 1012.6 |
| 20260504014850 | 10 | 139 | 11.3 | 19.3 | 0.00 | 0.00 | 0.05 | 74 | 1012.6 |
| 20260504014750 | 10 | 156 | 14.5 | 19.3 | 0.00 | 0.00 | 0.05 | 73 | 1012.6 |
| 20260504014650 | 10 | 108 | 8.0 | 17.7 | 0.00 | 0.00 | 0.05 | 74 | 1012.6 |
| 20260504014550 | 10 | 143 | 9.7 | 17.7 | 0.00 | 0.00 | 0.05 | 74 | 1012.6 |
| 20260504014450 | 10 | 127 | 9.7 | 14.5 | 0.00 | 0.00 | 0.05 | 74 | 1012.6 |
| 20260504014350 | 10 | 177 | 9.7 | 14.5 | 0.00 | 0.00 | 0.05 | 74 | 1012.6 |
| 20260504014250 | 10 | 179 | 9.7 | 14.5 | 0.00 | 0.00 | 0.05 | 74 | 1012.6 |
| 20260504014150 | 10 | 150 | 8.0 | 14.5 | 0.00 | 0.00 | 0.05 | 74 | 1012.6 |
| 20260504014050 | 10 | 150 | 9.7 | 14.5 | 0.00 | 0.00 | 0.05 | 74 | 1012.6 |
| 20260504013950 | 10 | 128 | 6.4 | 14.5 | 0.00 | 0.00 | 0.05 | 75 | 1012.6 |
| 20260504013850 | 10 | 148 | 8.0 | 14.5 | 0.00 | 0.00 | 0.05 | 75 | 1012.6 |
| 20260504013750 | 10 | 96 | 8.0 | 14.5 | 0.00 | 0.00 | 0.05 | 75 | 1012.6 |
| 20260504013650 | 10 | 136 | 9.7 | 14.5 | 0.00 | 0.00 | 0.05 | 75 | 1012.6 |
| 20260504013550 | 10 | 143 | 8.0 | 12.9 | 0.00 | 0.00 | 0.05 | 75 | 1012.6 |
| 20260504013450 | 10 | 165 | 8.0 | 12.9 | 0.00 | 0.00 | 0.05 | 75 | 1012.6 |
| 20260504013350 | 10 | 110 | 8.0 | 12.9 | 0.00 | 0.00 | 0.05 | 75 | 1012.6 |
| 20260504013250 | 10 | 108 | 8.0 | 14.5 | 0.00 | 0.00 | 0.05 | 75 | 1012.6 |
| 20260504013150 | 10 | 145 | 6.4 | 14.5 | 0.00 | 0.00 | 0.05 | 76 | 1012.6 |
| 20260504013050 | 10 | 132 | 6.4 | 14.5 | 0.00 | 0.00 | 0.05 | 75 | 1012.6 |
| 20260504012950 | 10 | 149 | 6.4 | 14.5 | 0.00 | 0.00 | 0.05 | 75 | 1012.6 |
| 20260504012850 | 10 | 132 | 8.0 | 14.5 | 0.00 | 0.00 | 0.05 | 75 | 1012.6 |
| 20260504012750 | 10 | 132 | 8.0 | 14.5 | 0.00 | 0.00 | 0.05 | 75 | 1012.6 |
| 20260504012650 | 10 | 136 | 11.3 | 14.5 | 0.00 | 0.00 | 0.05 | 75 | 1012.6 |
| 20260504012550 | 10 | 132 | 8.0 | 14.5 | 0.00 | 0.00 | 0.05 | 75 | 1012.6 |
| 20260504012450 | 10 | 153 | 8.0 | 14.5 | 0.00 | 0.00 | 0.05 | 75 | 1012.6 |
| 20260504012350 | 10 | 128 | 11.3 | 14.5 | 0.00 | 0.00 | 0.05 | 75 | 1012.6 |
| 20260504012250 | 10 | 152 | 8.0 | 14.5 | 0.00 | 0.00 | 0.05 | 75 | 1012.6 |
| 20260504012150 | 10 | 138 | 8.0 | 14.5 | 0.00 | 0.00 | 0.05 | 75 | 1012.6 |
| 20260504012050 | 10 | 134 | 6.4 | 14.5 | 0.00 | 0.00 | 0.05 | 75 | 1012.6 |
| 20260504011950 | 10 | 139 | 9.7 | 14.5 | 0.00 | 0.00 | 0.05 | 75 | 1012.6 |
| 20260504011850 | 10 | 134 | 9.7 | 14.5 | 0.00 | 0.00 | 0.05 | 75 | 1012.6 |
| 20260504011750 | 10 | 150 | 9.7 | 14.5 | 0.00 | 0.00 | 0.05 | 75 | 1012.6 |
| 20260504011650 | 10 | 142 | 9.7 | 14.5 | 0.00 | 0.00 | 0.05 | 74 | 1012.6 |
| 20260504011550 | 10 | 136 | 9.7 | 14.5 | 0.00 | 0.00 | 0.05 | 75 | 1012.6 |
| 20260504011450 | 10 | 160 | 8.0 | 14.5 | 0.00 | 0.00 | 0.05 | 75 | 1012.6 |
| 20260504011350 | 10 | 128 | 9.7 | 14.5 | 0.00 | 0.00 | 0.05 | 75 | 1012.6 |
| 20260504011250 | 10 | 138 | 8.0 | 14.5 | 0.00 | 0.00 | 0.05 | 76 | 1012.6 |
| 20260504011150 | 10 | 129 | 8.0 | 16.1 | 0.00 | 0.00 | 0.05 | 76 | 1012.6 |
| 20260504011050 | 10 | 148 | 8.0 | 16.1 | 0.00 | 0.00 | 0.05 | 76 | 1012.6 |
| 20260504010950 | 10 | 158 | 8.0 | 16.1 | 0.00 | 0.00 | 0.05 | 76 | 1012.6 |
| 20260504010850 | 10 | 153 | 6.4 | 16.1 | 0.00 | 0.00 | 0.05 | 76 | 1012.6 |
| 20260504010750 | 10 | 177 | 8.0 | 16.1 | 0.00 | 0.00 | 0.05 | 76 | 1012.6 |
| 20260504010650 | 10 | 153 | 9.7 | 16.1 | 0.00 | 0.00 | 0.05 | 76 | 1012.6 |
| 20260504010550 | 10 | 153 | 6.4 | 16.1 | 0.00 | 0.00 | 0.05 | 76 | 1012.6 |
| 20260504010450 | 10 | 69 | 3.2 | 16.1 | 0.00 | 0.00 | 0.05 | 76 | 1012.6 |
| 20260504010350 | 10 | 148 | 9.7 | 16.1 | 0.00 | 0.00 | 0.05 | 76 | 1012.6 |
| 20260504010250 | 10 | 131 | 11.3 | 16.1 | 0.00 | 0.00 | 0.05 | 76 | 1012.6 |
| 20260504010150 | 10 | 110 | 9.7 | 14.5 | 0.00 | 0.00 | 0.05 | 76 | 1012.6 |
| 20260504010050 | 10 | 167 | 9.7 | 14.5 | 0.00 | 0.00 | 0.05 | 76 | 1012.6 |
| 20260504005950 | 10 | 86 | 8.0 | 14.5 | 0.00 | 0.00 | 0.05 | 77 | 1012.6 |
| 20260504005850 | 10 | 114 | 8.0 | 14.5 | 0.00 | 0.00 | 0.05 | 76 | 1012.6 |
| 20260504005750 | 10 | 141 | 8.0 | 14.5 | 0.00 | 0.00 | 0.05 | 76 | 1012.6 |
| 20260504005650 | 10 | 148 | 9.7 | 14.5 | 0.00 | 0.00 | 0.05 | 76 | 1012.6 |
| 20260504005550 | 10 | 149 | 9.7 | 14.5 | 0.00 | 0.00 | 0.05 | 76 | 1012.6 |
| 20260504005450 | 10 | 134 | 9.7 | 12.9 | 0.00 | 0.00 | 0.05 | 76 | 1012.6 |
| 20260504005350 | 10 | 160 | 9.7 | 12.9 | 0.00 | 0.00 | 0.05 | 76 | 1012.6 |
| 20260504005250 | 10 | 127 | 9.7 | 12.9 | 0.00 | 0.00 | 0.05 | 77 | 1012.6 |
| 20260504005150 | 10 | 158 | 8.0 | 12.9 | 0.00 | 0.00 | 0.05 | 77 | 1012.6 |
| 20260504005050 | 10 | 129 | 3.2 | 12.9 | 0.00 | 0.00 | 0.05 | 77 | 1012.6 |
| 20260504004950 | 10 | 68 | 8.0 | 12.9 | 0.00 | 0.00 | 0.05 | 77 | 1012.6 |
| 20260504004850 | 10 | 143 | 8.0 | 12.9 | 0.00 | 0.00 | 0.05 | 77 | 1012.6 |
| 20260504004750 | 10 | 89 | 1.6 | 12.9 | 0.00 | 0.00 | 0.05 | 78 | 1012.9 |
| 20260504004650 | 10 | 46 | 8.0 | 12.9 | 0.00 | 0.00 | 0.05 | 78 | 1012.9 |
| 20260504004550 | 10 | 127 | 9.7 | 12.9 | 0.00 | 0.00 | 0.05 | 77 | 1012.9 |
| 20260504004450 | 10 | 148 | 6.4 | 12.9 | 0.00 | 0.00 | 0.05 | 78 | 1012.9 |
| 20260504004350 | 10 | 177 | 8.0 | 12.9 | 0.00 | 0.00 | 0.05 | 77 | 1012.9 |
| 20260504004250 | 10 | 173 | 6.4 | 12.9 | 0.00 | 0.00 | 0.05 | 78 | 1012.9 |
| 20260504004150 | 10 | 159 | 8.0 | 12.9 | 0.00 | 0.00 | 0.05 | 78 | 1012.9 |
| 20260504004050 | 10 | 150 | 8.0 | 12.9 | 0.00 | 0.00 | 0.05 | 78 | 1012.9 |
| 20260504003950 | 10 | 142 | 8.0 | 12.9 | 0.00 | 0.00 | 0.05 | 78 | 1012.9 |
| 20260504003850 | 10 | 117 | 6.4 | 12.9 | 0.00 | 0.00 | 0.05 | 79 | 1012.9 |
| 20260504003750 | 10 | 134 | 6.4 | 14.5 | 0.00 | 0.00 | 0.05 | 78 | 1012.9 |
| 20260504003650 | 10 | 142 | 8.0 | 14.5 | 0.00 | 0.00 | 0.05 | 78 | 1012.9 |
| 20260504003550 | 10 | 204 | 6.4 | 14.5 | 0.00 | 0.00 | 0.05 | 79 | 1012.6 |
| 20260504003450 | 10 | 158 | 8.0 | 17.7 | 0.00 | 0.00 | 0.05 | 79 | 1012.6 |
| 20260504003350 | 10 | 174 | 9.7 | 17.7 | 0.00 | 0.00 | 0.05 | 79 | 1012.6 |
| 20260504003250 | 10 | 118 | 8.0 | 17.7 | 0.00 | 0.00 | 0.05 | 79 | 1012.6 |
| 20260504003150 | 10 | 169 | 8.0 | 17.7 | 0.00 | 0.00 | 0.05 | 79 | 1012.6 |
| 20260504003050 | 10 | 155 | 9.7 | 17.7 | 0.00 | 0.00 | 0.05 | 79 | 1012.6 |
| 20260504002950 | 10 | 173 | 6.4 | 17.7 | 0.00 | 0.00 | 0.05 | 79 | 1012.6 |
| 20260504002850 | 10 | 114 | 9.7 | 17.7 | 0.00 | 0.00 | 0.05 | 79 | 1012.6 |
| 20260504002750 | 10 | 143 | 9.7 | 17.7 | 0.00 | 0.00 | 0.05 | 79 | 1012.6 |
| 20260504002651 | 10 | 148 | 11.3 | 17.7 | 0.00 | 0.00 | 0.05 | 79 | 1012.6 |
| 20260504002550 | 10 | 141 | 9.7 | 17.7 | 0.00 | 0.00 | 0.05 | 79 | 1012.6 |
| 20260504002450 | 10 | 152 | 3.2 | 14.5 | 0.00 | 0.00 | 0.05 | 80 | 1012.6 |
| 20260504002350 | 10 | 122 | 8.0 | 14.5 | 0.00 | 0.00 | 0.05 | 79 | 1012.6 |
| 20260504002250 | 10 | 149 | 6.4 | 14.5 | 0.00 | 0.00 | 0.05 | 79 | 1012.6 |
| 20260504002150 | 10 | 101 | 0.0 | 14.5 | 0.00 | 0.00 | 0.05 | 79 | 1012.6 |
| 20260504002050 | 10 | 70 | 0.0 | 14.5 | 0.00 | 0.00 | 0.05 | 79 | 1012.6 |
| 20260504001950 | 10 | 69 | 6.4 | 14.5 | 0.00 | 0.00 | 0.05 | 79 | 1012.6 |
| 20260504001850 | 10 | 156 | 6.4 | 14.5 | 0.00 | 0.00 | 0.05 | 79 | 1012.6 |
| 20260504001750 | 10 | 138 | 8.0 | 14.5 | 0.00 | 0.00 | 0.05 | 79 | 1012.6 |
| 20260504001650 | 10 | 149 | 8.0 | 14.5 | 0.00 | 0.00 | 0.05 | 79 | 1012.6 |
| 20260504001550 | 10 | 125 | 8.0 | 12.9 | 0.00 | 0.00 | 0.05 | 79 | 1012.6 |
| 20260504001450 | 10 | 128 | 6.4 | 12.9 | 0.00 | 0.00 | 0.05 | 80 | 1012.6 |
| 20260504001350 | 10 | 145 | 6.4 | 12.9 | 0.00 | 0.00 | 0.05 | 80 | 1012.6 |
| 20260504001250 | 10 | 141 | 4.8 | 12.9 | 0.00 | 0.00 | 0.05 | 80 | 1012.6 |
| 20260504001150 | 10 | 125 | 4.8 | 12.9 | 0.00 | 0.00 | 0.05 | 80 | 1012.6 |
| 20260504001050 | 9 | 145 | 8.0 | 12.9 | 0.00 | 0.00 | 0.05 | 81 | 1012.6 |
| 20260504000950 | 10 | 145 | 4.8 | 11.3 | 0.00 | 0.00 | 0.05 | 81 | 1012.6 |
| 20260504000850 | 9 | 127 | 9.7 | 11.3 | 0.00 | 0.00 | 0.05 | 81 | 1012.6 |
| 20260504000750 | 9 | 141 | 8.0 | 11.3 | 0.00 | 0.00 | 0.05 | 82 | 1012.6 |
| 20260504000650 | 10 | 201 | 3.2 | 6.4 | 0.00 | 0.00 | 0.05 | 83 | 1012.6 |
| 20260504000550 | 10 | 131 | 4.8 | 9.7 | 0.00 | 0.00 | 0.05 | 83 | 1012.6 |
| 20260504000450 | 10 | 153 | 0.0 | 9.7 | 0.00 | 0.00 | 0.05 | 83 | 1012.6 |
| 20260504000350 | 10 | 59 | 0.0 | 11.3 | 0.00 | 0.00 | 0.05 | 82 | 1012.6 |
| 20260504000250 | 10 | 59 | 0.0 | 11.3 | 0.00 | 0.00 | 0.05 | 82 | 1012.6 |
| 20260504000150 | 10 | 59 | 0.0 | 12.9 | 0.00 | 0.00 | 0.05 | 82 | 1012.6 |
| 20260504000050 | 10 | 59 | 0.0 | 12.9 | 0.00 | 0.00 | 0.05 | 82 | 1012.6 |
| 20260503235950 | 10 | 113 | 3.2 | 12.9 | 0.00 | 0.00 | 0.05 | 83 | 1012.6 |
| 20260503235850 | 10 | 45 | 0.0 | 12.9 | 0.00 | 0.00 | 0.05 | 83 | 1012.6 |
| 20260503235750 | 9 | 80 | 1.6 | 12.9 | 0.00 | 0.00 | 0.05 | 83 | 1012.6 |
| 20260503235650 | 9 | 56 | 3.2 | 12.9 | 0.00 | 0.00 | 0.05 | 83 | 1012.6 |
| 20260503235550 | 9 | 145 | 4.8 | 12.9 | 0.00 | 0.00 | 0.05 | 83 | 1012.6 |
| 20260503235450 | 9 | 49 | 6.4 | 12.9 | 0.00 | 0.00 | 0.05 | 83 | 1012.6 |
| 20260503235350 | 9 | 135 | 6.4 | 12.9 | 0.00 | 0.00 | 0.05 | 84 | 1012.6 |
| 20260503235250 | 9 | 173 | 6.4 | 12.9 | 0.00 | 0.00 | 0.05 | 83 | 1012.6 |
| 20260503235150 | 9 | 145 | 6.4 | 12.9 | 0.00 | 0.00 | 0.05 | 83 | 1012.6 |
| 20260503235050 | 9 | 124 | 8.0 | 12.9 | 0.00 | 0.00 | 0.05 | 84 | 1012.6 |
| 20260503234950 | 9 | 143 | 4.8 | 11.3 | 0.00 | 0.00 | 0.05 | 84 | 1012.6 |
| 20260503234850 | 9 | 134 | 4.8 | 8.0 | 0.00 | 0.00 | 0.05 | 84 | 1012.6 |
| 20260503234750 | 9 | 84 | 3.2 | 11.3 | 0.00 | 0.00 | 0.05 | 84 | 1012.6 |
| 20260503234650 | 9 | 136 | 3.2 | 11.3 | 0.00 | 0.00 | 0.05 | 84 | 1012.6 |
| 20260503234550 | 10 | 62 | 3.2 | 11.3 | 0.00 | 0.00 | 0.05 | 84 | 1012.6 |
| 20260503234450 | 10 | 89 | 1.6 | 11.3 | 0.00 | 0.00 | 0.05 | 84 | 1012.6 |
| 20260503234350 | 9 | 115 | 1.6 | 11.3 | 0.00 | 0.00 | 0.05 | 84 | 1012.6 |
| 20260503234250 | 9 | 121 | 3.2 | 11.3 | 0.00 | 0.00 | 0.05 | 84 | 1012.6 |
| 20260503234150 | 9 | 152 | 1.6 | 11.3 | 0.00 | 0.00 | 0.05 | 84 | 1012.6 |
| 20260503234050 | 9 | 103 | 0.0 | 11.3 | 0.00 | 0.00 | 0.05 | 84 | 1012.6 |
| 20260503233950 | 9 | 103 | 0.0 | 11.3 | 0.00 | 0.00 | 0.05 | 84 | 1012.6 |
| 20260503233850 | 9 | 103 | 4.8 | 11.3 | 0.00 | 0.00 | 0.05 | 83 | 1012.6 |
| 20260503233750 | 9 | 146 | 3.2 | 11.3 | 0.00 | 0.00 | 0.05 | 83 | 1012.6 |
| 20260503233650 | 9 | 146 | 3.2 | 9.7 | 0.00 | 0.00 | 0.05 | 83 | 1012.6 |
| 20260503233550 | 9 | 117 | 3.2 | 9.7 | 0.00 | 0.00 | 0.05 | 83 | 1012.6 |
| 20260503233450 | 9 | 128 | 6.4 | 9.7 | 0.00 | 0.00 | 0.05 | 83 | 1012.9 |
| 20260503233350 | 9 | 93 | 3.2 | 9.7 | 0.00 | 0.00 | 0.05 | 83 | 1012.9 |
| 20260503233250 | 9 | 110 | 3.2 | 9.7 | 0.00 | 0.00 | 0.05 | 83 | 1012.9 |
| 20260503233150 | 9 | 125 | 1.6 | 9.7 | 0.00 | 0.00 | 0.05 | 83 | 1012.9 |
| 20260503233050 | 9 | 114 | 1.6 | 9.7 | 0.00 | 0.00 | 0.05 | 83 | 1012.9 |
| 20260503232950 | 9 | 128 | 4.8 | 9.7 | 0.00 | 0.00 | 0.05 | 83 | 1012.9 |
| 20260503232850 | 9 | 79 | 1.6 | 9.7 | 0.00 | 0.00 | 0.05 | 84 | 1012.9 |
| 20260503232750 | 9 | 49 | 1.6 | 9.7 | 0.00 | 0.00 | 0.05 | 84 | 1012.9 |
| 20260503232650 | 9 | 150 | 3.2 | 9.7 | 0.00 | 0.00 | 0.05 | 84 | 1012.9 |
| 20260503232550 | 9 | 73 | 0.0 | 9.7 | 0.00 | 0.00 | 0.05 | 84 | 1012.9 |
| 20260503232450 | 9 | 73 | 3.2 | 9.7 | 0.00 | 0.00 | 0.05 | 84 | 1012.9 |
| 20260503232350 | 9 | 155 | 6.4 | 9.7 | 0.00 | 0.00 | 0.05 | 84 | 1012.9 |
| 20260503232250 | 9 | 118 | 4.8 | 9.7 | 0.00 | 0.00 | 0.05 | 85 | 1012.9 |
| 20260503232150 | 9 | 159 | 6.4 | 9.7 | 0.00 | 0.00 | 0.05 | 84 | 1012.9 |
| 20260503232050 | 9 | 152 | 1.6 | 9.7 | 0.00 | 0.00 | 0.05 | 85 | 1012.9 |
| 20260503231950 | 9 | 28 | 0.0 | 9.7 | 0.00 | 0.00 | 0.05 | 85 | 1012.9 |
| 20260503231850 | 9 | 28 | 0.0 | 9.7 | 0.00 | 0.00 | 0.05 | 85 | 1012.9 |
| 20260503231750 | 9 | 28 | 0.0 | 9.7 | 0.00 | 0.00 | 0.05 | 85 | 1012.9 |
| 20260503231650 | 9 | 28 | 0.0 | 9.7 | 0.00 | 0.00 | 0.05 | 85 | 1012.9 |
| 20260503231550 | 9 | 28 | 1.6 | 9.7 | 0.00 | 0.00 | 0.05 | 85 | 1012.9 |
| 20260503231450 | 9 | 93 | 4.8 | 9.7 | 0.00 | 0.00 | 0.05 | 85 | 1012.9 |
| 20260503231350 | 9 | 69 | 1.6 | 4.8 | 0.00 | 0.00 | 0.05 | 85 | 1012.9 |
| 20260503231250 | 9 | 39 | 0.0 | 8.0 | 0.03 | 0.00 | 0.05 | 85 | 1012.9 |
| 20260503231150 | 9 | 39 | 0.0 | 8.0 | 0.03 | 0.00 | 0.05 | 85 | 1012.9 |
| 20260503231050 | 9 | 39 | 0.0 | 8.0 | 0.03 | 0.00 | 0.05 | 85 | 1012.9 |
| 20260503230950 | 9 | 39 | 0.0 | 8.0 | 0.03 | 0.00 | 0.05 | 85 | 1012.9 |
| 20260503230850 | 9 | 39 | 0.0 | 8.0 | 0.03 | 0.00 | 0.05 | 84 | 1012.9 |
| 20260503230750 | 9 | 39 | 0.0 | 8.0 | 0.03 | 0.00 | 0.05 | 30 | 1012.9 |
| 20260503230650 | 9 | 39 | 0.0 | 8.0 | 0.03 | 0.00 | 0.05 | 85 | 1012.9 |
| 20260503230550 | 9 | 39 | 0.0 | 8.0 | 0.03 | 0.00 | 0.05 | 85 | 1012.9 |
| 20260503230450 | 9 | 39 | 0.0 | 8.0 | 0.03 | 0.00 | 0.05 | 85 | 1012.9 |
| 20260503230350 | 9 | 39 | 3.2 | 8.0 | 0.05 | 0.00 | 0.05 | 85 | 1012.9 |
| 20260503230250 | 9 | 41 | 0.0 | 6.4 | 0.05 | 0.00 | 0.05 | 85 | 1012.9 |
| 20260503230150 | 9 | 87 | 1.6 | 6.4 | 0.05 | 0.00 | 0.05 | 31 | 1012.9 |
| 20260503230050 | 9 | 114 | 4.8 | 6.4 | 0.05 | 0.00 | 0.05 | 85 | 1012.9 |
| 20260503225950 | 9 | 114 | 0.0 | 6.4 | 0.05 | 0.00 | 0.05 | 86 | 1012.9 |
| 20260503225850 | 9 | 91 | 0.0 | 9.7 | 0.05 | 0.00 | 0.05 | 85 | 1012.9 |
| 20260503225750 | 9 | 124 | 1.6 | 9.7 | 0.05 | 0.00 | 0.05 | 86 | 1012.9 |
| 20260503225650 | 9 | 93 | 0.0 | 9.7 | 0.05 | 0.00 | 0.05 | 86 | 1013.2 |
| 20260503225550 | 9 | 41 | 0.0 | 9.7 | 0.05 | 0.00 | 0.05 | 86 | 1013.2 |
| 20260503225450 | 9 | 41 | 0.0 | 9.7 | 0.05 | 0.00 | 0.05 | 86 | 1013.2 |
| 20260503225350 | 9 | 41 | 3.2 | 9.7 | 0.05 | 0.00 | 0.05 | 86 | 1013.2 |
| 20260503225250 | 9 | 63 | 1.6 | 9.7 | 0.05 | 0.00 | 0.05 | 86 | 1013.2 |
| 20260503225150 | 9 | 134 | 3.2 | 9.7 | 0.05 | 0.00 | 0.05 | 86 | 1013.2 |
| 20260503225050 | 9 | 89 | 3.2 | 9.7 | 0.05 | 0.00 | 0.05 | 87 | 1013.2 |
| 20260503224950 | 9 | 132 | 6.4 | 9.7 | 0.05 | 0.00 | 0.05 | 87 | 1013.2 |
| 20260503224850 | 9 | 142 | 4.8 | 8.0 | 0.05 | 0.00 | 0.05 | 86 | 1013.2 |
| 20260503224750 | 9 | 156 | 1.6 | 8.0 | 0.05 | 0.00 | 0.05 | 87 | 1013.2 |
| 20260503224650 | 9 | 224 | 0.0 | 0.0 | 0.05 | 0.00 | 0.05 | 87 | 1013.2 |
| 20260503224550 | 9 | 224 | 0.0 | 0.0 | 0.05 | 0.00 | 0.05 | 86 | 1013.2 |
| 20260503224450 | 9 | 224 | 0.0 | 0.0 | 0.05 | 0.00 | 0.05 | 86 | 1013.2 |
| 20260503224350 | 9 | 224 | 0.0 | 0.0 | 0.05 | 0.00 | 0.05 | 86 | 1013.6 |
| 20260503224250 | 9 | 224 | 0.0 | 0.0 | 0.05 | 0.00 | 0.05 | 86 | 1013.6 |
| 20260503224150 | 9 | 224 | 0.0 | 0.0 | 0.05 | 0.00 | 0.05 | 85 | 1013.6 |
| 20260503224050 | 9 | 224 | 0.0 | 0.0 | 0.05 | 0.00 | 0.05 | 85 | 1013.6 |
| 20260503223950 | 9 | 224 | 0.0 | 0.0 | 0.05 | 0.00 | 0.05 | 85 | 1013.6 |
| 20260503223850 | 9 | 224 | 0.0 | 0.0 | 0.05 | 0.00 | 0.05 | 86 | 1013.6 |
| 20260503223750 | 9 | 224 | 0.0 | 0.0 | 0.05 | 0.00 | 0.05 | 86 | 1013.6 |
| 20260503223650 | 9 | 224 | 0.0 | 0.0 | 0.05 | 0.00 | 0.05 | 85 | 1013.6 |
| 20260503223550 | 9 | 224 | 0.0 | 0.0 | 0.05 | 0.00 | 0.05 | 85 | 1013.6 |
| 20260503223450 | 9 | 224 | 0.0 | 0.0 | 0.05 | 0.00 | 0.05 | 85 | 1013.6 |
| 20260503223350 | 9 | 224 | 0.0 | 0.0 | 0.05 | 0.00 | 0.05 | 85 | 1013.6 |
| 20260503223250 | 9 | 224 | 0.0 | 0.0 | 0.05 | 0.00 | 0.05 | 84 | 1013.6 |
| 20260503223150 | 9 | 224 | 0.0 | 0.0 | 0.05 | 0.00 | 0.05 | 85 | 1013.6 |
| 20260503223050 | 9 | 224 | 0.0 | 0.0 | 0.05 | 0.00 | 0.05 | 85 | 1013.6 |
| 20260503222950 | 9 | 224 | 0.0 | 0.0 | 0.05 | 0.00 | 0.05 | 84 | 1013.6 |
| 20260503222850 | 9 | 224 | 0.0 | 0.0 | 0.05 | 0.00 | 0.05 | 85 | 1013.6 |
| 20260503222750 | 9 | 224 | 0.0 | 0.0 | 0.05 | 0.00 | 0.05 | 85 | 1013.6 |
| 20260503222650 | 9 | 224 | 0.0 | 4.8 | 0.05 | 0.00 | 0.05 | 84 | 1013.6 |
| 20260503222550 | 9 | 224 | 0.0 | 4.8 | 0.05 | 0.00 | 0.05 | 84 | 1013.6 |
| 20260503222450 | 9 | 224 | 0.0 | 6.4 | 0.05 | 0.00 | 0.05 | 84 | 1013.6 |
| 20260503222350 | 9 | 224 | 0.0 | 9.7 | 0.05 | 0.00 | 0.05 | 84 | 1013.6 |
| 20260503222250 | 9 | 224 | 0.0 | 9.7 | 0.05 | 0.00 | 0.05 | 84 | 1013.9 |
| 20260503222150 | 9 | 224 | 0.0 | 9.7 | 0.05 | 0.00 | 0.05 | 84 | 1013.9 |
| 20260503222050 | 9 | 224 | 0.0 | 9.7 | 0.05 | 0.00 | 0.05 | 84 | 1013.9 |
| 20260503221950 | 9 | 224 | 0.0 | 11.3 | 0.05 | 0.00 | 0.05 | 84 | 1013.9 |
| 20260503221850 | 9 | 224 | 0.0 | 11.3 | 0.05 | 0.00 | 0.05 | 84 | 1013.9 |
| 20260503221750 | 9 | 224 | 3.2 | 11.3 | 0.05 | 0.00 | 0.05 | 84 | 1014.3 |
| 20260503221650 | 9 | 58 | 3.2 | 11.3 | 0.05 | 0.00 | 0.05 | 84 | 1014.3 |
| 20260503221550 | 9 | 125 | 3.2 | 11.3 | 0.05 | 0.00 | 0.05 | 84 | 1014.3 |
| 20260503221450 | 9 | 142 | 6.4 | 12.9 | 0.05 | 0.00 | 0.05 | 84 | 1014.3 |
| 20260503221350 | 9 | 149 | 6.4 | 12.9 | 0.05 | 0.00 | 0.05 | 84 | 1014.6 |
| 20260503221250 | 9 | 159 | 1.6 | 12.9 | 0.03 | 0.00 | 0.03 | 84 | 1014.6 |
| 20260503221150 | 9 | 167 | 4.8 | 12.9 | 0.03 | 0.00 | 0.03 | 84 | 1014.6 |
| 20260503221050 | 9 | 201 | 9.7 | 12.9 | 0.03 | 0.00 | 0.03 | 83 | 1014.6 |
| 20260503220950 | 9 | 143 | 8.0 | 12.9 | 0.03 | 0.00 | 0.03 | 84 | 1014.6 |
| 20260503220850 | 9 | 184 | 6.4 | 12.9 | 0.03 | 0.00 | 0.03 | 84 | 1014.6 |
| 20260503220750 | 9 | 145 | 4.8 | 12.9 | 0.03 | 0.00 | 0.03 | 83 | 1014.6 |
| 20260503220650 | 9 | 162 | 6.4 | 12.9 | 0.03 | 0.00 | 0.03 | 83 | 1014.9 |
| 20260503220550 | 9 | 197 | 8.0 | 12.9 | 0.03 | 0.00 | 0.03 | 83 | 1014.9 |
| 20260503220450 | 9 | 186 | 9.7 | 14.5 | 0.03 | 0.00 | 0.03 | 82 | 1014.9 |
| 20260503220350 | 10 | 212 | 4.8 | 14.5 | 0.00 | 0.00 | 0.00 | 82 | 1014.9 |
| 20260503220250 | 10 | 183 | 4.8 | 14.5 | 0.00 | 0.00 | 0.00 | 82 | 1014.9 |
| 20260503220150 | 10 | 167 | 6.4 | 16.1 | 0.00 | 0.00 | 0.00 | 82 | 1014.9 |
| 20260503220050 | 10 | 198 | 8.0 | 16.1 | 0.00 | 0.00 | 0.00 | 81 | 1014.9 |
| 20260503215950 | 10 | 188 | 6.4 | 19.3 | 0.00 | 0.00 | 0.00 | 81 | 1014.9 |
| 20260503215850 | 10 | 203 | 4.8 | 19.3 | 0.00 | 0.00 | 0.00 | 81 | 1014.9 |
| 20260503215750 | 10 | 219 | 6.4 | 24.1 | 0.00 | 0.00 | 0.00 | 81 | 1014.9 |
| 20260503215650 | 10 | 197 | 8.0 | 24.1 | 0.00 | 0.00 | 0.00 | 80 | 1014.9 |
| 20260503215550 | 10 | 217 | 8.0 | 24.1 | 0.00 | 0.00 | 0.00 | 80 | 1014.9 |
| 20260503215450 | 10 | 135 | 9.7 | 24.1 | 0.00 | 0.00 | 0.00 | 79 | 1015.3 |
| 20260503215350 | 10 | 231 | 6.4 | 24.1 | 0.00 | 0.00 | 0.00 | 78 | 1015.3 |
| 20260503215250 | 10 | 238 | 11.3 | 24.1 | 0.00 | 0.00 | 0.00 | 77 | 1015.3 |
| 20260503215150 | 10 | 191 | 11.3 | 24.1 | 0.00 | 0.00 | 0.00 | 76 | 1015.3 |
| 20260503215050 | 10 | 197 | 11.3 | 24.1 | 0.00 | 0.00 | 0.00 | 74 | 1015.3 |
| 20260503214950 | 10 | 219 | 9.7 | 24.1 | 0.00 | 0.00 | 0.00 | 74 | 1015.3 |
| 20260503214850 | 10 | 188 | 11.3 | 24.1 | 0.00 | 0.00 | 0.00 | 73 | 1015.3 |
| 20260503214750 | 10 | 214 | 9.7 | 22.5 | 0.00 | 0.00 | 0.00 | 71 | 1015.3 |
| 20260503214650 | 10 | 198 | 11.3 | 22.5 | 0.00 | 0.00 | 0.00 | 71 | 1015.3 |
| 20260503214550 | 11 | 214 | 8.0 | 22.5 | 0.00 | 0.00 | 0.00 | 70 | 1015.3 |
| 20260503214450 | 11 | 219 | 8.0 | 22.5 | 0.00 | 0.00 | 0.00 | 67 | 1015.3 |
| 20260503214350 | 11 | 250 | 8.0 | 22.5 | 0.00 | 0.00 | 0.00 | 67 | 1015.3 |
| 20260503214250 | 11 | 231 | 4.8 | 33.8 | 0.00 | 0.00 | 0.00 | 65 | 1014.9 |
| 20260503214150 | 11 | 274 | 9.7 | 33.8 | 0.00 | 0.00 | 0.00 | 65 | 1014.9 |
| 20260503214050 | 11 | 235 | 11.3 | 33.8 | 0.00 | 0.00 | 0.00 | 64 | 1014.9 |
| 20260503213950 | 11 | 190 | 11.3 | 33.8 | 0.00 | 0.00 | 0.00 | 64 | 1014.9 |
| 20260503213850 | 11 | 221 | 8.0 | 33.8 | 0.00 | 0.00 | 0.00 | 63 | 1014.9 |
| 20260503213750 | 11 | 253 | 8.0 | 33.8 | 0.00 | 0.00 | 0.00 | 62 | 1014.9 |
| 20260503213650 | 11 | 124 | 8.0 | 33.8 | 0.00 | 0.00 | 0.00 | 62 | 1014.9 |
| 20260503213550 | 11 | 311 | 9.7 | 33.8 | 0.00 | 0.00 | 0.00 | 62 | 1014.9 |
| 20260503213450 | 11 | 255 | 11.3 | 33.8 | 0.00 | 0.00 | 0.00 | 61 | 1014.9 |
| 20260503213350 | 11 | 187 | 14.5 | 33.8 | 0.00 | 0.00 | 0.00 | 60 | 1014.9 |
| 20260503213250 | 11 | 201 | 16.1 | 32.2 | 0.00 | 0.00 | 0.00 | 60 | 1014.9 |
| 20260503213150 | 11 | 191 | 9.7 | 29.0 | 0.00 | 0.00 | 0.00 | 59 | 1014.9 |
| 20260503213050 | 11 | 134 | 11.3 | 29.0 | 0.00 | 0.00 | 0.00 | 59 | 1014.9 |
| 20260503212950 | 11 | 221 | 9.7 | 29.0 | 0.00 | 0.00 | 0.00 | 59 | 1014.9 |
| 20260503212850 | 11 | 257 | 9.7 | 37.0 | 0.00 | 0.00 | 0.00 | 58 | 1014.9 |
| 20260503212750 | 11 | 233 | 11.3 | 37.0 | 0.00 | 0.00 | 0.00 | 58 | 1014.9 |
| 20260503212650 | 12 | 93 | 11.3 | 37.0 | 0.00 | 0.00 | 0.00 | 59 | 1014.6 |
| 20260503212550 | 12 | 195 | 14.5 | 37.0 | 0.00 | 0.00 | 0.00 | 58 | 1014.6 |
| 20260503212450 | 12 | 205 | 6.4 | 37.0 | 0.00 | 0.00 | 0.00 | 57 | 1014.6 |
| 20260503212350 | 12 | 338 | 12.9 | 37.0 | 0.00 | 0.00 | 0.00 | 57 | 1014.6 |
| 20260503212250 | 12 | 326 | 4.8 | 37.0 | 0.00 | 0.00 | 0.00 | 56 | 1014.6 |
| 20260503212150 | 12 | 20 | 6.4 | 37.0 | 0.00 | 0.00 | 0.00 | 56 | 1014.6 |
| 20260503212050 | 12 | 214 | 8.0 | 37.0 | 0.00 | 0.00 | 0.00 | 55 | 1014.6 |
| 20260503211950 | 12 | 190 | 16.1 | 37.0 | 0.00 | 0.00 | 0.00 | 55 | 1014.6 |
| 20260503211850 | 12 | 290 | 11.3 | 33.8 | 0.00 | 0.00 | 0.00 | 53 | 1014.6 |
| 20260503211750 | 12 | 193 | 14.5 | 33.8 | 0.00 | 0.00 | 0.00 | 53 | 1014.6 |
| 20260503211650 | 12 | 235 | 9.7 | 33.8 | 0.00 | 0.00 | 0.00 | 53 | 1014.6 |
| 20260503211550 | 12 | 212 | 12.9 | 33.8 | 0.00 | 0.00 | 0.00 | 52 | 1014.6 |
| 20260503211450 | 13 | 273 | 9.7 | 33.8 | 0.00 | 0.00 | 0.00 | 53 | 1014.6 |
| 20260503211350 | 13 | 187 | 12.9 | 33.8 | 0.00 | 0.00 | 0.00 | 52 | 1014.6 |
| 20260503211250 | 13 | 255 | 6.4 | 33.8 | 0.00 | 0.00 | 0.00 | 52 | 1014.6 |
| 20260503211150 | 13 | 267 | 12.9 | 33.8 | 0.00 | 0.00 | 0.00 | 50 | 1014.6 |
| 20260503211050 | 13 | 173 | 8.0 | 33.8 | 0.00 | 0.00 | 0.00 | 48 | 1014.3 |
| 20260503210950 | 13 | 150 | 6.4 | 33.8 | 0.00 | 0.00 | 0.00 | 47 | 1014.3 |
| 20260503210850 | 13 | 242 | 14.5 | 33.8 | 0.00 | 0.00 | 0.00 | 48 | 1014.3 |
| 20260503210750 | 14 | 297 | 14.5 | 33.8 | 0.00 | 0.00 | 0.00 | 45 | 1014.3 |
| 20260503210650 | 14 | 239 | 14.5 | 33.8 | 0.00 | 0.00 | 0.00 | 43 | 1014.3 |
| 20260503210550 | 15 | 1 | 8.0 | 29.0 | 0.00 | 0.00 | 0.00 | 42 | 1014.3 |
| 20260503210450 | 15 | 142 | 8.0 | 29.0 | 0.00 | 0.00 | 0.00 | 41 | 1014.3 |
| 20260503210350 | 15 | 236 | 12.9 | 29.0 | 0.00 | 0.00 | 0.00 | 39 | 1014.3 |
| 20260503210250 | 15 | 198 | 12.9 | 29.0 | 0.00 | 0.00 | 0.00 | 38 | 1014.3 |
| 20260503210150 | 15 | 228 | 9.7 | 22.5 | 0.00 | 0.00 | 0.00 | 36 | 1013.9 |
| 20260503210050 | 15 | 293 | 12.9 | 22.5 | 0.00 | 0.00 | 0.00 | 35 | 1013.9 |
| 20260503205950 | 15 | 307 | 9.7 | 22.5 | 0.00 | 0.00 | 0.00 | 34 | 1013.9 |
| 20260503205850 | 15 | 204 | 9.7 | 22.5 | 0.00 | 0.00 | 0.00 | 34 | 1013.9 |
| 20260503205750 | 15 | 176 | 11.3 | 22.5 | 0.00 | 0.00 | 0.00 | 34 | 1013.9 |
| 20260503205650 | 15 | 176 | 11.3 | 24.1 | 0.00 | 0.00 | 0.00 | 34 | 1013.9 |
| 20260503205550 | 15 | 200 | 9.7 | 27.4 | 0.00 | 0.00 | 0.00 | 34 | 1013.9 |
| 20260503205450 | 15 | 211 | 9.7 | 27.4 | 0.00 | 0.00 | 0.00 | 35 | 1013.9 |
| 20260503205350 | 15 | 170 | 6.4 | 27.4 | 0.00 | 0.00 | 0.00 | 35 | 1013.9 |
| 20260503205250 | 15 | 245 | 8.0 | 29.0 | 0.00 | 0.00 | 0.00 | 35 | 1013.9 |
| 20260503205150 | 15 | 180 | 6.4 | 29.0 | 0.00 | 0.00 | 0.00 | 36 | 1013.9 |
| 20260503205050 | 15 | 235 | 9.7 | 29.0 | 0.00 | 0.00 | 0.00 | 35 | 1013.9 |
| 20260503204950 | 15 | 188 | 11.3 | 29.0 | 0.00 | 0.00 | 0.00 | 35 | 1013.9 |
| 20260503204850 | 15 | 201 | 12.9 | 29.0 | 0.00 | 0.00 | 0.00 | 34 | 1014.3 |
| 20260503204750 | 15 | 165 | 12.9 | 29.0 | 0.00 | 0.00 | 0.00 | 34 | 1014.3 |
| 20260503204650 | 15 | 158 | 8.0 | 29.0 | 0.00 | 0.00 | 0.00 | 34 | 1014.3 |
| 20260503204550 | 15 | 321 | 11.3 | 29.0 | 0.00 | 0.00 | 0.00 | 33 | 1014.3 |
| 20260503204450 | 15 | 193 | 8.0 | 29.0 | 0.00 | 0.00 | 0.00 | 34 | 1014.3 |
| 20260503204350 | 15 | 165 | 9.7 | 29.0 | 0.00 | 0.00 | 0.00 | 33 | 1014.3 |
| 20260503204250 | 15 | 232 | 12.9 | 29.0 | 0.00 | 0.00 | 0.00 | 34 | 1014.3 |
| 20260503204150 | 15 | 290 | 8.0 | 29.0 | 0.00 | 0.00 | 0.00 | 34 | 1014.3 |
| 20260503204050 | 15 | 262 | 6.4 | 29.0 | 0.00 | 0.00 | 0.00 | 34 | 1014.3 |
| 20260503203950 | 15 | 260 | 11.3 | 29.0 | 0.00 | 0.00 | 0.00 | 35 | 1014.3 |
| 20260503203850 | 15 | 132 | 8.0 | 32.2 | 0.00 | 0.00 | 0.00 | 35 | 1014.3 |
| 20260503203750 | 15 | 240 | 8.0 | 32.2 | 0.00 | 0.00 | 0.00 | 35 | 1014.3 |
| 20260503203650 | 15 | 312 | 3.2 | 32.2 | 0.00 | 0.00 | 0.00 | 35 | 1014.3 |
| 20260503203550 | 15 | 262 | 14.5 | 32.2 | 0.00 | 0.00 | 0.00 | 34 | 1014.3 |
| 20260503203450 | 15 | 187 | 16.1 | 32.2 | 0.00 | 0.00 | 0.00 | 35 | 1014.3 |
| 20260503203350 | 15 | 201 | 14.5 | 32.2 | 0.00 | 0.00 | 0.00 | 33 | 1014.3 |
| 20260503203250 | 15 | 231 | 11.3 | 32.2 | 0.00 | 0.00 | 0.00 | 33 | 1014.3 |
| 20260503203150 | 15 | 4 | 4.8 | 32.2 | 0.00 | 0.00 | 0.00 | 34 | 1014.3 |
| 20260503203050 | 15 | 166 | 8.0 | 32.2 | 0.00 | 0.00 | 0.00 | 33 | 1014.3 |
| 20260503202950 | 15 | 186 | 14.5 | 32.2 | 0.00 | 0.00 | 0.00 | 32 | 1014.3 |
| 20260503202850 | 15 | 204 | 9.7 | 27.4 | 0.00 | 0.00 | 0.00 | 33 | 1014.3 |
| 20260503202750 | 15 | 167 | 12.9 | 29.0 | 0.00 | 0.00 | 0.00 | 33 | 1014.3 |
| 20260503202650 | 15 | 201 | 12.9 | 29.0 | 0.00 | 0.00 | 0.00 | 32 | 1014.3 |
| 20260503202550 | 16 | 277 | 6.4 | 29.0 | 0.00 | 0.00 | 0.00 | 34 | 1014.3 |
| 20260503202450 | 16 | 240 | 9.7 | 29.0 | 0.00 | 0.00 | 0.00 | 33 | 1014.3 |
| 20260503202350 | 16 | 235 | 8.0 | 29.0 | 0.00 | 0.00 | 0.00 | 33 | 1014.3 |
| 20260503202250 | 16 | 350 | 6.4 | 29.0 | 0.00 | 0.00 | 0.00 | 34 | 1014.3 |
| 20260503202150 | 16 | 285 | 6.4 | 29.0 | 0.00 | 0.00 | 0.00 | 34 | 1014.3 |
| 20260503202050 | 16 | 285 | 8.0 | 29.0 | 0.00 | 0.00 | 0.00 | 34 | 1014.6 |
| 20260503201950 | 16 | 225 | 11.3 | 29.0 | 0.00 | 0.00 | 0.00 | 32 | 1014.3 |
| 20260503201850 | 16 | 293 | 12.9 | 29.0 | 0.00 | 0.00 | 0.00 | 32 | 1014.3 |
| 20260503201750 | 16 | 208 | 4.8 | 20.9 | 0.00 | 0.00 | 0.00 | 34 | 1014.3 |
| 20260503201650 | 16 | 87 | 1.6 | 20.9 | 0.00 | 0.00 | 0.00 | 34 | 1014.3 |
| 20260503201550 | 16 | 141 | 6.4 | 20.9 | 0.00 | 0.00 | 0.00 | 33 | 1014.3 |
| 20260503201450 | 16 | 295 | 4.8 | 20.9 | 0.00 | 0.00 | 0.00 | 33 | 1014.3 |
| 20260503201350 | 16 | 149 | 3.2 | 20.9 | 0.00 | 0.00 | 0.00 | 33 | 1014.6 |
| 20260503201250 | 16 | 281 | 6.4 | 20.9 | 0.00 | 0.00 | 0.00 | 32 | 1014.3 |
| 20260503201150 | 16 | 215 | 11.3 | 20.9 | 0.00 | 0.00 | 0.00 | 31 | 1014.6 |
| 20260503201050 | 16 | 205 | 8.0 | 19.3 | 0.00 | 0.00 | 0.00 | 30 | 1014.6 |
| 20260503200950 | 16 | 263 | 6.4 | 19.3 | 0.00 | 0.00 | 0.00 | 32 | 1014.6 |
| 20260503200850 | 16 | 198 | 4.8 | 19.3 | 0.00 | 0.00 | 0.00 | 32 | 1014.6 |
| 20260503200750 | 16 | 201 | 8.0 | 22.5 | 0.00 | 0.00 | 0.00 | 32 | 1014.6 |
| 20260503200650 | 16 | 233 | 6.4 | 22.5 | 0.00 | 0.00 | 0.00 | 30 | 1014.6 |
| 20260503200550 | 16 | 153 | 8.0 | 22.5 | 0.00 | 0.00 | 0.00 | 32 | 1014.6 |
| 20260503200450 | 16 | 262 | 6.4 | 22.5 | 0.00 | 0.00 | 0.00 | 31 | 1014.6 |
| 20260503200350 | 16 | 257 | 4.8 | 22.5 | 0.00 | 0.00 | 0.00 | 31 | 1014.6 |
| 20260503200250 | 16 | 271 | 6.4 | 22.5 | 0.00 | 0.00 | 0.00 | 32 | 1014.6 |
| 20260503200150 | 16 | 186 | 4.8 | 22.5 | 0.00 | 0.00 | 0.00 | 33 | 1014.6 |
| 20260503200050 | 16 | 295 | 4.8 | 22.5 | 0.00 | 0.00 | 0.00 | 33 | 1014.6 |
| 20260503195950 | 16 | 184 | 8.0 | 22.5 | 0.00 | 0.00 | 0.00 | 32 | 1014.6 |
| 20260503195850 | 16 | 221 | 9.7 | 22.5 | 0.00 | 0.00 | 0.00 | 31 | 1014.6 |
| 20260503195750 | 16 | 162 | 6.4 | 22.5 | 0.00 | 0.00 | 0.00 | 31 | 1014.6 |
| 20260503195650 | 16 | 284 | 8.0 | 25.7 | 0.00 | 0.00 | 0.00 | 31 | 1014.6 |
| 20260503195550 | 16 | 165 | 3.2 | 25.7 | 0.00 | 0.00 | 0.00 | 33 | 1014.6 |
| 20260503195450 | 16 | 212 | 6.4 | 25.7 | 0.00 | 0.00 | 0.00 | 31 | 1014.6 |
| 20260503195350 | 16 | 307 | 6.4 | 29.0 | 0.00 | 0.00 | 0.00 | 32 | 1014.6 |
| 20260503195250 | 16 | 271 | 6.4 | 29.0 | 0.00 | 0.00 | 0.00 | 32 | 1014.6 |
| 20260503195150 | 16 | 177 | 9.7 | 29.0 | 0.00 | 0.00 | 0.00 | 32 | 1014.6 |
| 20260503195050 | 16 | 274 | 11.3 | 29.0 | 0.00 | 0.00 | 0.00 | 32 | 1014.6 |
| 20260503194950 | 16 | 243 | 11.3 | 29.0 | 0.00 | 0.00 | 0.00 | 33 | 1014.6 |
| 20260503194850 | 16 | 243 | 9.7 | 32.2 | 0.00 | 0.00 | 0.00 | 31 | 1014.6 |
| 20260503194750 | 16 | 242 | 11.3 | 32.2 | 0.00 | 0.00 | 0.00 | 31 | 1014.9 |
| 20260503194650 | 16 | 226 | 12.9 | 32.2 | 0.00 | 0.00 | 0.00 | 32 | 1014.6 |
| 20260503194550 | 16 | 132 | 14.5 | 32.2 | 0.00 | 0.00 | 0.00 | 33 | 1014.6 |
| 20260503194450 | 16 | 193 | 12.9 | 32.2 | 0.00 | 0.00 | 0.00 | 32 | 1014.6 |
| 20260503194350 | 16 | 233 | 12.9 | 35.4 | 0.00 | 0.00 | 0.00 | 31 | 1014.6 |
| 20260503194250 | 16 | 198 | 16.1 | 35.4 | 0.00 | 0.00 | 0.00 | 32 | 1014.6 |
| 20260503194150 | 16 | 146 | 14.5 | 35.4 | 0.00 | 0.00 | 0.00 | 32 | 1014.6 |
| 20260503194050 | 15 | 228 | 16.1 | 35.4 | 0.00 | 0.00 | 0.00 | 32 | 1014.9 |
| 20260503193950 | 16 | 208 | 20.9 | 35.4 | 0.00 | 0.00 | 0.00 | 31 | 1014.9 |
| 20260503193850 | 16 | 203 | 14.5 | 35.4 | 0.00 | 0.00 | 0.00 | 32 | 1014.6 |
| 20260503193750 | 16 | 191 | 17.7 | 35.4 | 0.00 | 0.00 | 0.00 | 31 | 1014.6 |
| 20260503193650 | 16 | 204 | 17.7 | 35.4 | 0.00 | 0.00 | 0.00 | 32 | 1014.9 |
| 20260503193550 | 16 | 236 | 17.7 | 35.4 | 0.00 | 0.00 | 0.00 | 31 | 1014.9 |
| 20260503193450 | 16 | 186 | 19.3 | 35.4 | 0.00 | 0.00 | 0.00 | 31 | 1014.9 |
| 20260503193350 | 16 | 165 | 16.1 | 25.7 | 0.00 | 0.00 | 0.00 | 32 | 1014.9 |
| 20260503193250 | 16 | 252 | 12.9 | 25.7 | 0.00 | 0.00 | 0.00 | 32 | 1014.9 |
| 20260503193150 | 16 | 193 | 12.9 | 25.7 | 0.00 | 0.00 | 0.00 | 30 | 1014.9 |
| 20260503193050 | 16 | 183 | 16.1 | 25.7 | 0.00 | 0.00 | 0.00 | 33 | 1014.9 |
| 20260503192950 | 16 | 170 | 14.5 | 25.7 | 0.00 | 0.00 | 0.00 | 33 | 1014.9 |
| 20260503192850 | 16 | 198 | 8.0 | 25.7 | 0.00 | 0.00 | 0.00 | 32 | 1014.9 |
| 20260503192750 | 16 | 328 | 11.3 | 24.1 | 0.00 | 0.00 | 0.00 | 30 | 1014.9 |
| 20260503192650 | 16 | 236 | 12.9 | 27.4 | 0.00 | 0.00 | 0.00 | 31 | 1014.9 |
| 20260503192550 | 16 | 271 | 9.7 | 27.4 | 0.00 | 0.00 | 0.00 | 31 | 1014.9 |
| 20260503192450 | 16 | 212 | 12.9 | 27.4 | 0.00 | 0.00 | 0.00 | 31 | 1014.9 |
| 20260503192350 | 16 | 174 | 11.3 | 27.4 | 0.00 | 0.00 | 0.00 | 29 | 1014.9 |
| 20260503192250 | 16 | 218 | 12.9 | 29.0 | 0.00 | 0.00 | 0.00 | 29 | 1014.9 |
| 20260503192150 | 16 | 181 | 9.7 | 29.0 | 0.00 | 0.00 | 0.00 | 32 | 1014.9 |
| 20260503192050 | 16 | 207 | 9.7 | 30.6 | 0.00 | 0.00 | 0.00 | 31 | 1014.9 |
| 20260503191950 | 16 | 193 | 9.7 | 32.2 | 0.00 | 0.00 | 0.00 | 31 | 1014.9 |
| 20260503191850 | 16 | 236 | 11.3 | 32.2 | 0.00 | 0.00 | 0.00 | 32 | 1014.9 |
| 20260503191750 | 16 | 222 | 14.5 | 32.2 | 0.00 | 0.00 | 0.00 | 32 | 1014.9 |
| 20260503191650 | 16 | 193 | 16.1 | 32.2 | 0.00 | 0.00 | 0.00 | 32 | 1014.9 |
| 20260503191550 | 16 | 186 | 12.9 | 32.2 | 0.00 | 0.00 | 0.00 | 31 | 1014.9 |
| 20260503191450 | 16 | 180 | 11.3 | 32.2 | 0.00 | 0.00 | 0.00 | 32 | 1014.9 |
| 20260503191350 | 16 | 201 | 16.1 | 32.2 | 0.00 | 0.00 | 0.00 | 31 | 1014.9 |
| 20260503191250 | 16 | 210 | 14.5 | 32.2 | 0.00 | 0.00 | 0.00 | 32 | 1014.9 |
| 20260503191150 | 16 | 204 | 19.3 | 32.2 | 0.00 | 0.00 | 0.00 | 31 | 1014.9 |
| 20260503191050 | 16 | 210 | 20.9 | 32.2 | 0.00 | 0.00 | 0.00 | 31 | 1014.9 |
| 20260503190950 | 16 | 172 | 16.1 | 32.2 | 0.00 | 0.00 | 0.00 | 31 | 1014.9 |
| 20260503190850 | 16 | 235 | 11.3 | 30.6 | 0.00 | 0.00 | 0.00 | 32 | 1014.9 |
| 20260503190750 | 16 | 146 | 14.5 | 30.6 | 0.00 | 0.00 | 0.00 | 30 | 1015.3 |
| 20260503190650 | 16 | 186 | 12.9 | 30.6 | 0.00 | 0.00 | 0.00 | 31 | 1015.3 |
| 20260503190550 | 16 | 169 | 12.9 | 30.6 | 0.00 | 0.00 | 0.00 | 31 | 1015.3 |
| 20260503190450 | 16 | 193 | 12.9 | 30.6 | 0.00 | 0.00 | 0.00 | 32 | 1015.3 |
| 20260503190350 | 16 | 210 | 14.5 | 30.6 | 0.00 | 0.00 | 0.00 | 32 | 1015.3 |
| 20260503190250 | 16 | 195 | 14.5 | 30.6 | 0.00 | 0.00 | 0.00 | 32 | 1015.3 |
| 20260503190150 | 16 | 138 | 22.5 | 30.6 | 0.00 | 0.00 | 0.00 | 30 | 1015.3 |
| 20260503190050 | 16 | 177 | 19.3 | 27.4 | 0.00 | 0.00 | 0.00 | 31 | 1015.3 |
| 20260503185950 | 16 | 181 | 14.5 | 24.1 | 0.00 | 0.00 | 0.00 | 31 | 1015.3 |
| 20260503185850 | 17 | 174 | 6.4 | 25.7 | 0.00 | 0.00 | 0.00 | 31 | 1015.3 |
| 20260503185750 | 17 | 162 | 4.8 | 25.7 | 0.00 | 0.00 | 0.00 | 31 | 1015.3 |
| 20260503185650 | 16 | 288 | 8.0 | 25.7 | 0.00 | 0.00 | 0.00 | 32 | 1015.3 |
| 20260503185550 | 16 | 283 | 8.0 | 25.7 | 0.00 | 0.00 | 0.00 | 32 | 1015.3 |
| 20260503185450 | 16 | 328 | 11.3 | 25.7 | 0.00 | 0.00 | 0.00 | 30 | 1015.3 |
| 20260503185350 | 16 | 260 | 9.7 | 25.7 | 0.00 | 0.00 | 0.00 | 33 | 1015.3 |
| 20260503185250 | 16 | 210 | 14.5 | 25.7 | 0.00 | 0.00 | 0.00 | 32 | 1015.3 |
| 20260503185150 | 16 | 183 | 12.9 | 25.7 | 0.00 | 0.00 | 0.00 | 31 | 1015.3 |
| 20260503185050 | 16 | 219 | 12.9 | 25.7 | 0.00 | 0.00 | 0.00 | 29 | 1015.3 |
| 20260503184950 | 16 | 212 | 12.9 | 25.7 | 0.00 | 0.00 | 0.00 | 32 | 1015.3 |
| 20260503184850 | 16 | 226 | 12.9 | 29.0 | 0.00 | 0.00 | 0.00 | 32 | 1015.3 |
| 20260503184750 | 17 | 245 | 4.8 | 29.0 | 0.00 | 0.00 | 0.00 | 31 | 1015.3 |